Time,TemperatureF,DewpointF,PressureIn,WindDirection,WindDirectionDegrees,WindSpeedMPH,WindSpeedGustMPH,Humidity,HourlyPrecipIn,Conditions,Clouds,dailyrainin,SoftwareType,DateUTC
2013-03-24 00:00:00,32.3,23.6,29.84,SSW,213,0.0,0.0,70,0.00,,,0.00,VWS V14.01,2013-03-24 04:00:00,
2013-03-24 00:05:00,32.3,23.6,29.84,WNW,291,2.0,4.0,70,0.00,,,0.00,VWS V14.01,2013-03-24 04:05:00,
2013-03-24 00:10:00,32.3,24.0,29.84,SE,145,0.0,2.0,71,0.00,,,0.00,VWS V14.01,2013-03-24 04:10:00,
2013-03-24 00:11:00,32.3,24.0,29.84,SE,145,0.0,2.0,71,0.00,,,0.00,VWS V14.01,2013-03-24 04:11:00,
2013-03-24 00:15:00,32.2,23.9,29.84,SSE,149,0.0,0.0,71,0.00,,,0.00,VWS V14.01,2013-03-24 04:15:00,
2013-03-24 00:16:00,32.2,23.9,29.84,SSE,150,0.0,0.0,71,0.00,,,0.00,VWS V14.01,2013-03-24 04:16:00,
2013-03-24 00:20:00,32.2,24.2,29.84,SSE,149,0.0,0.0,72,0.00,,,0.00,VWS V14.01,2013-03-24 04:20:00,
2013-03-24 00:21:00,32.2,23.9,29.84,SSE,149,0.0,0.0,71,0.00,,,0.00,VWS V14.01,2013-03-24 04:21:00,
2013-03-24 00:25:00,32.1,24.1,29.84,SSE,168,1.0,2.0,72,0.00,,,0.00,VWS V14.01,2013-03-24 04:25:00,
2013-03-24 00:27:00,32.1,24.1,29.84,WSW,244,4.0,4.0,72,0.00,,,0.00,VWS V14.01,2013-03-24 04:27:00,
2013-03-24 00:30:00,32.1,24.1,29.84,WSW,244,2.0,2.0,72,0.00,,,0.00,VWS V14.01,2013-03-24 04:30:00,
2013-03-24 00:32:00,32.1,24.1,29.84,WSW,244,0.0,2.0,72,0.00,,,0.00,VWS V14.01,2013-03-24 04:32:00,
2013-03-24 00:35:00,32.1,24.1,29.85,East,96,0.0,1.0,72,0.00,,,0.00,VWS V14.01,2013-03-24 04:35:00,
2013-03-24 00:37:00,32.1,24.1,29.85,East,98,0.0,1.0,72,0.00,,,0.00,VWS V14.01,2013-03-24 04:37:00,
2013-03-24 00:40:00,32.1,23.8,29.84,East,98,0.0,0.0,71,0.00,,,0.00,VWS V14.01,2013-03-24 04:40:00,
2013-03-24 00:41:00,32.2,23.9,29.84,East,98,0.0,0.0,71,0.00,,,0.00,VWS V14.01,2013-03-24 04:41:00,
2013-03-24 00:42:00,32.2,23.9,29.84,East,98,0.0,1.0,71,0.00,,,0.00,VWS V14.01,2013-03-24 04:42:00,
2013-03-24 00:45:00,32.2,23.9,29.84,East,98,0.0,0.0,71,0.00,,,0.00,VWS V14.01,2013-03-24 04:45:00,
2013-03-24 00:46:00,32.2,23.9,29.84,East,98,0.0,0.0,71,0.00,,,0.00,VWS V14.01,2013-03-24 04:46:00,
2013-03-24 00:47:00,32.2,23.9,29.84,SSE,147,0.0,3.0,71,0.00,,,0.00,VWS V14.01,2013-03-24 04:47:00,
2013-03-24 00:50:00,32.2,23.9,29.84,SSE,147,0.0,0.0,71,0.00,,,0.00,VWS V14.01,2013-03-24 04:50:00,
2013-03-24 00:51:00,32.1,23.8,29.84,SSE,147,1.0,1.0,71,0.00,,,0.00,VWS V14.01,2013-03-24 04:51:00,
2013-03-24 00:53:00,32.2,23.9,29.84,SW,215,1.0,5.0,71,0.00,,,0.00,VWS V14.01,2013-03-24 04:53:00,
2013-03-24 00:55:00,32.2,23.5,29.84,SW,215,0.0,0.0,70,0.00,,,0.00,VWS V14.01,2013-03-24 04:55:00,
2013-03-24 00:56:00,32.2,23.9,29.84,SW,214,0.0,0.0,71,0.00,,,0.00,VWS V14.01,2013-03-24 04:56:00,
2013-03-24 00:58:00,32.2,23.9,29.84,SW,214,0.0,1.0,71,0.00,,,0.00,VWS V14.01,2013-03-24 04:58:00,
2013-03-24 01:00:00,32.2,23.9,29.84,SW,215,0.0,0.0,71,0.00,,,0.00,VWS V14.01,2013-03-24 05:00:00,
2013-03-24 01:01:00,32.2,23.9,29.84,SW,215,0.0,0.0,71,0.00,,,0.00,VWS V14.01,2013-03-24 05:01:00,
2013-03-24 01:02:00,32.1,23.8,29.84,SW,215,0.0,0.0,71,0.00,,,0.00,VWS V14.01,2013-03-24 05:02:00,
2013-03-24 01:03:00,32.2,23.9,29.84,SW,215,0.0,0.0,71,0.00,,,0.00,VWS V14.01,2013-03-24 05:03:00,
2013-03-24 01:05:00,32.1,23.8,29.84,South,190,2.0,3.0,71,0.00,,,0.00,VWS V14.01,2013-03-24 05:05:00,
2013-03-24 01:06:00,32.1,23.8,29.84,South,190,0.0,2.0,71,0.00,,,0.00,VWS V14.01,2013-03-24 05:06:00,
2013-03-24 01:07:00,32.1,23.8,29.84,South,190,0.0,2.0,71,0.00,,,0.00,VWS V14.01,2013-03-24 05:07:00,
2013-03-24 01:08:00,32.1,23.8,29.84,South,190,2.0,2.0,71,0.00,,,0.00,VWS V14.01,2013-03-24 05:08:00,
2013-03-24 01:10:00,32.1,24.1,29.84,West,270,0.0,5.0,72,0.00,,,0.00,VWS V14.01,2013-03-24 05:10:00,
2013-03-24 01:11:00,32.1,24.1,29.84,West,270,0.0,0.0,72,0.00,,,0.00,VWS V14.01,2013-03-24 05:11:00,
2013-03-24 01:12:00,32.1,24.1,29.84,West,269,0.0,0.0,72,0.00,,,0.00,VWS V14.01,2013-03-24 05:12:00,
2013-03-24 01:13:00,32.1,24.1,29.84,West,269,0.0,1.0,72,0.00,,,0.00,VWS V14.01,2013-03-24 05:13:00,
2013-03-24 01:15:00,32.0,24.0,29.84,West,269,1.0,1.0,72,0.00,,,0.00,VWS V14.01,2013-03-24 05:15:00,
2013-03-24 01:16:00,32.0,23.7,29.84,North,355,1.0,2.0,71,0.00,,,0.00,VWS V14.01,2013-03-24 05:16:00,
2013-03-24 01:17:00,32.0,25.3,29.84,North,355,1.0,2.0,76,0.00,,,0.00,VWS V14.01,2013-03-24 05:17:00,
2013-03-24 01:18:00,32.0,23.7,29.84,WSW,248,3.0,6.0,71,0.00,,,0.00,VWS V14.01,2013-03-24 05:18:00,
2013-03-24 01:20:00,32.1,23.8,29.84,WSW,250,0.0,6.0,71,0.00,,,0.00,VWS V14.01,2013-03-24 05:20:00,
2013-03-24 01:21:00,32.1,23.8,29.84,WSW,250,0.0,0.0,71,0.00,,,0.00,VWS V14.01,2013-03-24 05:21:00,
2013-03-24 01:22:00,32.1,24.1,29.84,WSW,250,0.0,0.0,72,0.00,,,0.00,VWS V14.01,2013-03-24 05:22:00,
2013-03-24 01:23:00,32.1,24.1,29.84,WSW,250,0.0,0.0,72,0.00,,,0.00,VWS V14.01,2013-03-24 05:23:00,
2013-03-24 01:25:00,32.1,24.1,29.84,ESE,103,2.0,3.0,72,0.00,,,0.00,VWS V14.01,2013-03-24 05:25:00,
2013-03-24 01:26:00,32.1,23.8,29.84,ESE,105,0.0,3.0,71,0.00,,,0.00,VWS V14.01,2013-03-24 05:26:00,
2013-03-24 01:27:00,32.1,23.8,29.84,West,272,1.0,3.0,71,0.00,,,0.00,VWS V14.01,2013-03-24 05:27:00,
2013-03-24 01:28:00,32.2,23.9,29.84,West,269,2.0,3.0,71,0.00,,,0.00,VWS V14.01,2013-03-24 05:28:00,
2013-03-24 01:30:00,32.1,23.8,29.84,West,271,2.0,3.0,71,0.00,,,0.00,VWS V14.01,2013-03-24 05:30:00,
2013-03-24 01:32:00,32.2,23.9,29.84,West,271,2.0,2.0,71,0.00,,,0.00,VWS V14.01,2013-03-24 05:32:00,
2013-03-24 01:33:00,32.2,23.9,29.84,West,271,0.0,2.0,71,0.00,,,0.00,VWS V14.01,2013-03-24 05:33:00,
2013-03-24 01:35:00,32.2,23.9,29.84,West,271,1.0,2.0,71,0.00,,,0.00,VWS V14.01,2013-03-24 05:35:00,
2013-03-24 01:37:00,32.2,23.9,29.84,WSW,253,0.0,3.0,71,0.00,,,0.00,VWS V14.01,2013-03-24 05:37:00,
2013-03-24 01:38:00,32.2,23.5,29.84,WSW,253,0.0,3.0,70,0.00,,,0.00,VWS V14.01,2013-03-24 05:38:00,
2013-03-24 01:40:00,32.2,23.5,29.84,WSW,252,2.0,3.0,70,0.00,,,0.00,VWS V14.01,2013-03-24 05:40:00,
2013-03-24 01:42:00,32.2,23.5,29.84,SSW,199,0.0,4.0,70,0.00,,,0.00,VWS V14.01,2013-03-24 05:42:00,
2013-03-24 01:43:00,32.2,23.5,29.84,SSW,199,0.0,4.0,70,0.00,,,0.00,VWS V14.01,2013-03-24 05:43:00,
2013-03-24 01:45:00,32.2,23.5,29.84,SSW,199,0.0,4.0,70,0.00,,,0.00,VWS V14.01,2013-03-24 05:45:00,
2013-03-24 01:47:00,32.3,23.6,29.85,SSW,200,0.0,2.0,70,0.00,,,0.00,VWS V14.01,2013-03-24 05:47:00,
2013-03-24 01:48:00,32.2,23.5,29.85,SSW,200,0.0,2.0,70,0.00,,,0.00,VWS V14.01,2013-03-24 05:48:00,
2013-03-24 01:50:00,32.2,23.5,29.85,SSW,200,0.0,2.0,70,0.00,,,0.00,VWS V14.01,2013-03-24 05:50:00,
2013-03-24 01:52:00,32.2,23.5,29.85,WSW,249,1.0,3.0,70,0.00,,,0.00,VWS V14.01,2013-03-24 05:52:00,
2013-03-24 01:53:00,32.2,23.5,29.85,WSW,249,2.0,3.0,70,0.00,,,0.00,VWS V14.01,2013-03-24 05:53:00,
2013-03-24 01:55:00,32.2,23.5,29.85,WSW,249,0.0,3.0,70,0.00,,,0.00,VWS V14.01,2013-03-24 05:55:00,
2013-03-24 01:57:00,32.2,23.5,29.85,WSW,249,0.0,0.0,70,0.00,,,0.00,VWS V14.01,2013-03-24 05:57:00,
2013-03-24 01:58:00,32.2,23.5,29.85,WSW,249,0.0,0.0,70,0.00,,,0.00,VWS V14.01,2013-03-24 05:58:00,
2013-03-24 01:59:00,32.2,23.5,29.85,WSW,249,2.0,3.0,70,0.00,,,0.00,VWS V14.01,2013-03-24 05:59:00,
2013-03-24 02:00:00,32.2,23.5,29.85,WSW,251,3.0,3.0,70,0.00,,,0.00,VWS V14.01,2013-03-24 06:00:00,
2013-03-24 02:02:00,32.2,23.5,29.85,WSW,246,0.0,3.0,70,0.00,,,0.00,VWS V14.01,2013-03-24 06:02:00,
2013-03-24 02:03:00,32.1,23.4,29.85,WSW,246,0.0,3.0,70,0.00,,,0.00,VWS V14.01,2013-03-24 06:03:00,
2013-03-24 02:04:00,32.2,23.5,29.85,WSW,246,0.0,3.0,70,0.00,,,0.00,VWS V14.01,2013-03-24 06:04:00,
2013-03-24 02:05:00,32.2,23.5,29.85,WSW,246,0.0,3.0,70,0.00,,,0.00,VWS V14.01,2013-03-24 06:05:00,
2013-03-24 02:08:00,32.2,23.9,29.85,WSW,245,2.0,3.0,71,0.00,,,0.00,VWS V14.01,2013-03-24 06:08:00,
2013-03-24 02:09:00,32.1,23.8,29.85,WSW,245,0.0,3.0,71,0.00,,,0.00,VWS V14.01,2013-03-24 06:09:00,
2013-03-24 02:10:00,32.1,23.8,29.85,WSW,245,0.0,3.0,71,0.00,,,0.00,VWS V14.01,2013-03-24 06:10:00,
2013-03-24 02:13:00,32.1,23.4,29.85,WSW,245,1.0,2.0,70,0.00,,,0.00,VWS V14.01,2013-03-24 06:13:00,
2013-03-24 02:14:00,32.1,23.4,29.85,WSW,245,0.0,2.0,70,0.00,,,0.00,VWS V14.01,2013-03-24 06:14:00,
2013-03-24 02:15:00,32.1,23.4,29.85,WSW,245,1.0,2.0,70,0.00,,,0.00,VWS V14.01,2013-03-24 06:15:00,
2013-03-24 02:18:00,32.1,23.4,29.85,WSW,245,0.0,2.0,70,0.00,,,0.00,VWS V14.01,2013-03-24 06:18:00,
2013-03-24 02:19:00,32.1,23.4,29.85,WSW,245,0.0,2.0,70,0.00,,,0.00,VWS V14.01,2013-03-24 06:19:00,
2013-03-24 02:20:00,32.1,23.4,29.85,WSW,245,1.0,2.0,70,0.00,,,0.00,VWS V14.01,2013-03-24 06:20:00,
2013-03-24 02:23:00,32.1,23.4,29.85,WSW,244,0.0,3.0,70,0.00,,,0.00,VWS V14.01,2013-03-24 06:23:00,
2013-03-24 02:24:00,32.1,23.4,29.85,WSW,244,0.0,3.0,70,0.00,,,0.00,VWS V14.01,2013-03-24 06:24:00,
2013-03-24 02:25:00,32.1,23.4,29.85,WSW,244,0.0,3.0,70,0.00,,,0.00,VWS V14.01,2013-03-24 06:25:00,
2013-03-24 02:28:00,32.1,23.4,29.85,WSW,244,0.0,1.0,70,0.00,,,0.00,VWS V14.01,2013-03-24 06:28:00,
2013-03-24 02:29:00,32.1,23.4,29.85,WSW,244,0.0,1.0,70,0.00,,,0.00,VWS V14.01,2013-03-24 06:29:00,
2013-03-24 02:30:00,32.1,23.8,29.85,WSW,244,1.0,2.0,71,0.00,,,0.00,VWS V14.01,2013-03-24 06:30:00,
2013-03-24 02:34:00,32.0,23.3,29.85,WSW,244,0.0,1.0,70,0.00,,,0.00,VWS V14.01,2013-03-24 06:34:00,
2013-03-24 02:35:00,32.0,23.3,29.85,WSW,244,0.0,1.0,70,0.00,,,0.00,VWS V14.01,2013-03-24 06:35:00,
2013-03-24 02:39:00,32.0,23.3,29.85,WNW,300,0.0,5.0,70,0.00,,,0.00,VWS V14.01,2013-03-24 06:39:00,
2013-03-24 02:40:00,32.0,23.3,29.85,WNW,300,0.0,5.0,70,0.00,,,0.00,VWS V14.01,2013-03-24 06:40:00,
2013-03-24 02:44:00,32.0,23.7,29.85,WNW,300,0.0,0.0,71,0.00,,,0.00,VWS V14.01,2013-03-24 06:44:00,
2013-03-24 02:45:00,32.0,23.7,29.85,WNW,300,0.0,0.0,71,0.00,,,0.00,VWS V14.01,2013-03-24 06:45:00,
2013-03-24 02:49:00,32.0,23.7,29.85,WNW,300,0.0,0.0,71,0.00,,,0.00,VWS V14.01,2013-03-24 06:49:00,
2013-03-24 02:50:00,32.0,23.7,29.85,WNW,300,1.0,1.0,71,0.00,,,0.00,VWS V14.01,2013-03-24 06:50:00,
2013-03-24 02:54:00,31.9,23.6,29.84,WNW,298,0.0,2.0,71,0.00,,,0.00,VWS V14.01,2013-03-24 06:54:00,
2013-03-24 02:55:00,31.9,23.6,29.84,WNW,298,0.0,2.0,71,0.00,,,0.00,VWS V14.01,2013-03-24 06:55:00,
2013-03-24 02:59:00,31.9,23.6,29.85,WSW,257,2.0,4.0,71,0.00,,,0.00,VWS V14.01,2013-03-24 06:59:00,
2013-03-24 03:00:00,31.9,23.6,29.85,WSW,257,1.0,1.0,71,0.00,,,0.00,VWS V14.01,2013-03-24 07:00:00,
2013-03-24 03:04:00,31.9,23.9,29.85,WSW,257,1.0,3.0,72,0.00,,,0.00,VWS V14.01,2013-03-24 07:04:00,
2013-03-24 03:05:00,31.9,23.9,29.85,WSW,258,0.0,1.0,72,0.00,,,0.00,VWS V14.01,2013-03-24 07:05:00,
2013-03-24 03:09:00,31.8,23.8,29.84,WSW,257,0.0,1.0,72,0.00,,,0.00,VWS V14.01,2013-03-24 07:09:00,
2013-03-24 03:10:00,31.8,23.8,29.84,WSW,258,0.0,0.0,72,0.00,,,0.00,VWS V14.01,2013-03-24 07:10:00,
2013-03-24 03:14:00,31.7,23.7,29.84,WSW,258,0.0,3.0,72,0.00,,,0.00,VWS V14.01,2013-03-24 07:14:00,
2013-03-24 03:15:00,31.7,23.7,29.84,WSW,258,1.0,1.0,72,0.00,,,0.00,VWS V14.01,2013-03-24 07:15:00,
2013-03-24 03:19:00,31.7,23.4,29.84,WSW,258,0.0,2.0,71,0.00,,,0.00,VWS V14.01,2013-03-24 07:19:00,
2013-03-24 03:20:00,31.7,23.4,29.84,WSW,258,0.0,0.0,71,0.00,,,0.00,VWS V14.01,2013-03-24 07:20:00,
2013-03-24 03:24:00,31.7,23.4,29.84,WSW,257,0.0,2.0,71,0.00,,,0.00,VWS V14.01,2013-03-24 07:24:00,
2013-03-24 03:25:00,31.7,23.4,29.84,WSW,257,0.0,1.0,71,0.00,,,0.00,VWS V14.01,2013-03-24 07:25:00,
2013-03-24 03:29:00,31.7,23.7,29.84,WSW,258,0.0,0.0,72,0.00,,,0.00,VWS V14.01,2013-03-24 07:29:00,
2013-03-24 03:30:00,31.7,23.7,29.84,WSW,257,0.0,0.0,72,0.00,,,0.00,VWS V14.01,2013-03-24 07:30:00,
2013-03-24 03:34:00,31.7,23.7,29.84,WSW,258,0.0,0.0,72,0.00,,,0.00,VWS V14.01,2013-03-24 07:34:00,
2013-03-24 03:35:00,31.6,23.6,29.84,WSW,258,0.0,0.0,72,0.00,,,0.00,VWS V14.01,2013-03-24 07:35:00,
2013-03-24 03:40:00,31.6,23.6,29.84,WSW,258,0.0,0.0,72,0.00,,,0.00,VWS V14.01,2013-03-24 07:40:00,
2013-03-24 03:45:00,31.5,23.9,29.84,WSW,257,0.0,0.0,73,0.00,,,0.00,VWS V14.01,2013-03-24 07:45:00,
2013-03-24 03:46:00,31.5,23.9,29.84,WSW,257,0.0,0.0,73,0.00,,,0.00,VWS V14.01,2013-03-24 07:46:00,
2013-03-24 03:50:00,31.3,24.0,29.83,WSW,258,0.0,0.0,74,0.00,,,0.00,VWS V14.01,2013-03-24 07:50:00,
2013-03-24 03:51:00,31.3,24.0,29.83,WSW,258,0.0,0.0,74,0.00,,,0.00,VWS V14.01,2013-03-24 07:51:00,
2013-03-24 03:55:00,31.2,23.9,29.83,WSW,258,0.0,0.0,74,0.00,,,0.00,VWS V14.01,2013-03-24 07:55:00,
2013-03-24 03:56:00,31.2,23.9,29.83,WSW,257,0.0,0.0,74,0.00,,,0.00,VWS V14.01,2013-03-24 07:56:00,
2013-03-24 03:57:00,31.1,23.8,29.83,WSW,258,0.0,0.0,74,0.00,,,0.00,VWS V14.01,2013-03-24 07:57:00,
2013-03-24 04:00:00,31.1,23.8,29.83,WSW,257,1.0,2.0,74,0.00,,,0.00,VWS V14.01,2013-03-24 08:00:00,
2013-03-24 04:01:00,31.1,23.8,29.83,WSW,257,1.0,2.0,74,0.00,,,0.00,VWS V14.01,2013-03-24 08:01:00,
2013-03-24 04:02:00,31.1,23.8,29.83,WSW,258,0.0,2.0,74,0.00,,,0.00,VWS V14.01,2013-03-24 08:02:00,
2013-03-24 04:05:00,31.1,23.5,29.83,WSW,257,0.0,0.0,73,0.00,,,0.00,VWS V14.01,2013-03-24 08:05:00,
2013-03-24 04:06:00,31.1,23.8,29.83,WSW,257,1.0,1.0,74,0.00,,,0.00,VWS V14.01,2013-03-24 08:06:00,
2013-03-24 04:07:00,31.1,23.8,29.83,WSW,258,0.0,1.0,74,0.00,,,0.00,VWS V14.01,2013-03-24 08:07:00,
2013-03-24 04:10:00,31.1,23.5,29.83,WSW,258,0.0,1.0,73,0.00,,,0.00,VWS V14.01,2013-03-24 08:10:00,
2013-03-24 04:11:00,31.1,23.5,29.83,WSW,257,0.0,1.0,73,0.00,,,0.00,VWS V14.01,2013-03-24 08:11:00,
2013-03-24 04:12:00,31.2,23.6,29.83,WSW,257,0.0,1.0,73,0.00,,,0.00,VWS V14.01,2013-03-24 08:12:00,
2013-03-24 04:15:00,31.2,23.9,29.83,WSW,254,0.0,1.0,74,0.00,,,0.00,VWS V14.01,2013-03-24 08:15:00,
2013-03-24 04:16:00,31.2,23.9,29.83,WSW,255,0.0,1.0,74,0.00,,,0.00,VWS V14.01,2013-03-24 08:16:00,
2013-03-24 04:17:00,31.2,23.6,29.83,WSW,254,0.0,1.0,73,0.00,,,0.00,VWS V14.01,2013-03-24 08:17:00,
2013-03-24 04:20:00,31.1,23.5,29.83,WSW,254,0.0,1.0,73,0.00,,,0.00,VWS V14.01,2013-03-24 08:20:00,
2013-03-24 04:21:00,31.1,23.5,29.83,WSW,255,0.0,0.0,73,0.00,,,0.00,VWS V14.01,2013-03-24 08:21:00,
2013-03-24 04:22:00,31.1,23.5,29.83,WSW,254,0.0,0.0,73,0.00,,,0.00,VWS V14.01,2013-03-24 08:22:00,
2013-03-24 04:25:00,31.1,23.8,29.83,WSW,255,0.0,1.0,74,0.00,,,0.00,VWS V14.01,2013-03-24 08:25:00,
2013-03-24 04:26:00,31.1,23.8,29.83,WSW,255,1.0,1.0,74,0.00,,,0.00,VWS V14.01,2013-03-24 08:26:00,
2013-03-24 04:27:00,31.1,23.8,29.83,SW,226,2.0,5.0,74,0.00,,,0.00,VWS V14.01,2013-03-24 08:27:00,
2013-03-24 04:30:00,31.1,23.8,29.83,SW,218,0.0,5.0,74,0.00,,,0.00,VWS V14.01,2013-03-24 08:30:00,
2013-03-24 04:31:00,31.1,23.5,29.83,SW,218,0.0,1.0,73,0.00,,,0.00,VWS V14.01,2013-03-24 08:31:00,
2013-03-24 04:32:00,31.1,23.5,29.83,SW,218,0.0,1.0,73,0.00,,,0.00,VWS V14.01,2013-03-24 08:32:00,
2013-03-24 04:35:00,31.1,23.8,29.83,SW,216,1.0,4.0,74,0.00,,,0.00,VWS V14.01,2013-03-24 08:35:00,
2013-03-24 04:36:00,31.1,23.5,29.83,SW,215,1.0,3.0,73,0.00,,,0.00,VWS V14.01,2013-03-24 08:36:00,
2013-03-24 04:37:00,31.1,23.5,29.83,SW,216,0.0,3.0,73,0.00,,,0.00,VWS V14.01,2013-03-24 08:37:00,
2013-03-24 04:38:00,31.1,23.5,29.83,SW,216,0.0,3.0,73,0.00,,,0.00,VWS V14.01,2013-03-24 08:38:00,
2013-03-24 04:40:00,31.2,23.6,29.83,SW,216,0.0,3.0,73,0.00,,,0.00,VWS V14.01,2013-03-24 08:40:00,
2013-03-24 04:41:00,31.2,23.6,29.83,SW,216,0.0,0.0,73,0.00,,,0.00,VWS V14.01,2013-03-24 08:41:00,
2013-03-24 04:42:00,31.2,23.6,29.83,SW,216,0.0,0.0,73,0.00,,,0.00,VWS V14.01,2013-03-24 08:42:00,
2013-03-24 04:43:00,31.2,23.6,29.83,SW,216,0.0,0.0,73,0.00,,,0.00,VWS V14.01,2013-03-24 08:43:00,
2013-03-24 04:45:00,31.2,23.6,29.83,SW,216,0.0,0.0,73,0.00,,,0.00,VWS V14.01,2013-03-24 08:45:00,
2013-03-24 04:46:00,31.2,23.6,29.83,SW,216,0.0,1.0,73,0.00,,,0.00,VWS V14.01,2013-03-24 08:46:00,
2013-03-24 04:47:00,31.2,23.6,29.83,SW,216,0.0,1.0,73,0.00,,,0.00,VWS V14.01,2013-03-24 08:47:00,
2013-03-24 04:48:00,31.2,23.6,29.83,SW,216,0.0,1.0,73,0.00,,,0.00,VWS V14.01,2013-03-24 08:48:00,
2013-03-24 04:50:00,31.2,23.6,29.83,SW,215,0.0,1.0,73,0.00,,,0.00,VWS V14.01,2013-03-24 08:50:00,
2013-03-24 04:51:00,31.2,23.6,29.83,SW,216,0.0,0.0,73,0.00,,,0.00,VWS V14.01,2013-03-24 08:51:00,
2013-03-24 04:52:00,31.2,23.6,29.83,SW,216,0.0,0.0,73,0.00,,,0.00,VWS V14.01,2013-03-24 08:52:00,
2013-03-24 04:53:00,31.2,23.6,29.83,SW,216,0.0,0.0,73,0.00,,,0.00,VWS V14.01,2013-03-24 08:53:00,
2013-03-24 04:55:00,31.1,23.5,29.83,SW,215,0.0,0.0,73,0.00,,,0.00,VWS V14.01,2013-03-24 08:55:00,
2013-03-24 04:57:00,31.2,23.6,29.83,SW,216,0.0,0.0,73,0.00,,,0.00,VWS V14.01,2013-03-24 08:57:00,
2013-03-24 04:58:00,31.1,23.8,29.84,SW,215,0.0,1.0,74,0.00,,,0.00,VWS V14.01,2013-03-24 08:58:00,
2013-03-24 05:00:00,31.1,23.8,29.84,SW,216,0.0,1.0,74,0.00,,,0.00,VWS V14.01,2013-03-24 09:00:00,
2013-03-24 05:02:00,31.1,23.8,29.84,SW,215,0.0,0.0,74,0.00,,,0.00,VWS V14.01,2013-03-24 09:02:00,
2013-03-24 05:03:00,31.1,23.8,29.83,SW,216,0.0,0.0,74,0.00,,,0.00,VWS V14.01,2013-03-24 09:03:00,
2013-03-24 05:05:00,31.1,23.8,29.83,SW,216,0.0,0.0,74,0.00,,,0.00,VWS V14.01,2013-03-24 09:05:00,
2013-03-24 05:07:00,31.0,23.7,29.84,SW,215,0.0,0.0,74,0.00,,,0.00,VWS V14.01,2013-03-24 09:07:00,
2013-03-24 05:08:00,31.0,23.7,29.84,SW,215,0.0,0.0,74,0.00,,,0.00,VWS V14.01,2013-03-24 09:08:00,
2013-03-24 05:10:00,31.0,24.0,29.84,SW,216,0.0,0.0,75,0.00,,,0.00,VWS V14.01,2013-03-24 09:10:00,
2013-03-24 05:12:00,31.0,24.0,29.84,SW,216,0.0,1.0,75,0.00,,,0.00,VWS V14.01,2013-03-24 09:12:00,
2013-03-24 05:13:00,31.0,24.3,29.84,SW,216,0.0,1.0,76,0.00,,,0.00,VWS V14.01,2013-03-24 09:13:00,
2013-03-24 05:14:00,30.9,23.9,29.83,SW,215,0.0,2.0,75,0.00,,,0.00,VWS V14.01,2013-03-24 09:14:00,
2013-03-24 05:15:00,30.9,23.9,29.83,SW,216,0.0,2.0,75,0.00,,,0.00,VWS V14.01,2013-03-24 09:15:00,
2013-03-24 05:17:00,30.9,23.9,29.83,SW,217,0.0,3.0,75,0.00,,,0.00,VWS V14.01,2013-03-24 09:17:00,
2013-03-24 05:18:00,30.9,23.9,29.83,SW,217,0.0,3.0,75,0.00,,,0.00,VWS V14.01,2013-03-24 09:18:00,
2013-03-24 05:19:00,30.9,24.2,29.83,SW,217,0.0,3.0,76,0.00,,,0.00,VWS V14.01,2013-03-24 09:19:00,
2013-03-24 05:20:00,30.9,24.2,29.83,SW,217,0.0,3.0,76,0.00,,,0.00,VWS V14.01,2013-03-24 09:20:00,
2013-03-24 05:22:00,30.8,24.1,29.83,SW,217,0.0,0.0,76,0.00,,,0.00,VWS V14.01,2013-03-24 09:22:00,
2013-03-24 05:23:00,30.8,24.1,29.83,SW,217,0.0,0.0,76,0.00,,,0.00,VWS V14.01,2013-03-24 09:23:00,
2013-03-24 05:24:00,30.8,24.1,29.83,SW,217,0.0,0.0,76,0.00,,,0.00,VWS V14.01,2013-03-24 09:24:00,
2013-03-24 05:25:00,30.8,24.1,29.83,SW,217,0.0,0.0,76,0.00,,,0.00,VWS V14.01,2013-03-24 09:25:00,
2013-03-24 05:27:00,30.8,23.8,29.83,WSW,241,0.0,7.0,75,0.00,,,0.00,VWS V14.01,2013-03-24 09:27:00,
2013-03-24 05:28:00,30.8,23.8,29.83,WSW,241,1.0,7.0,75,0.00,,,0.00,VWS V14.01,2013-03-24 09:28:00,
2013-03-24 05:29:00,30.8,23.8,29.83,WSW,241,0.0,7.0,75,0.00,,,0.00,VWS V14.01,2013-03-24 09:29:00,
2013-03-24 05:30:00,30.8,23.8,29.83,WSW,241,0.0,7.0,75,0.00,,,0.00,VWS V14.01,2013-03-24 09:30:00,
2013-03-24 05:32:00,30.8,23.8,29.83,WSW,241,0.0,3.0,75,0.00,,,0.00,VWS V14.01,2013-03-24 09:32:00,
2013-03-24 05:33:00,30.8,23.8,29.83,WSW,241,0.0,3.0,75,0.00,,,0.00,VWS V14.01,2013-03-24 09:33:00,
2013-03-24 05:34:00,30.9,23.9,29.83,WSW,241,1.0,1.0,75,0.00,,,0.00,VWS V14.01,2013-03-24 09:34:00,
2013-03-24 05:35:00,30.9,23.9,29.83,WSW,241,1.0,3.0,75,0.00,,,0.00,VWS V14.01,2013-03-24 09:35:00,
2013-03-24 05:37:00,30.9,23.9,29.83,WSW,241,0.0,1.0,75,0.00,,,0.00,VWS V14.01,2013-03-24 09:37:00,
2013-03-24 05:38:00,30.9,23.9,29.83,WSW,241,0.0,1.0,75,0.00,,,0.00,VWS V14.01,2013-03-24 09:38:00,
2013-03-24 05:39:00,30.9,23.9,29.83,WSW,241,0.0,0.0,75,0.00,,,0.00,VWS V14.01,2013-03-24 09:39:00,
2013-03-24 05:40:00,30.9,23.9,29.83,WSW,241,0.0,1.0,75,0.00,,,0.00,VWS V14.01,2013-03-24 09:40:00,
2013-03-24 05:43:00,30.9,23.9,29.83,WSW,241,0.0,2.0,75,0.00,,,0.00,VWS V14.01,2013-03-24 09:43:00,
2013-03-24 05:44:00,30.9,23.9,29.83,WSW,241,0.0,2.0,75,0.00,,,0.00,VWS V14.01,2013-03-24 09:44:00,
2013-03-24 05:45:00,30.9,23.9,29.84,WSW,241,0.0,2.0,75,0.00,,,0.00,VWS V14.01,2013-03-24 09:45:00,
2013-03-24 05:48:00,30.9,23.9,29.83,ESE,122,0.0,2.0,75,0.00,,,0.00,VWS V14.01,2013-03-24 09:48:00,
2013-03-24 05:49:00,30.9,23.9,29.83,SE,126,1.0,2.0,75,0.00,,,0.00,VWS V14.01,2013-03-24 09:49:00,
2013-03-24 05:50:00,31.0,24.0,29.83,SE,126,0.0,0.0,75,0.00,,,0.00,VWS V14.01,2013-03-24 09:50:00,
2013-03-24 05:53:00,31.0,24.0,29.83,SW,222,2.0,2.0,75,0.00,,,0.00,VWS V14.01,2013-03-24 09:53:00,
2013-03-24 05:54:00,31.0,24.0,29.83,SW,223,0.0,2.0,75,0.00,,,0.00,VWS V14.01,2013-03-24 09:54:00,
2013-03-24 05:55:00,31.0,24.0,29.83,SW,222,0.0,0.0,75,0.00,,,0.00,VWS V14.01,2013-03-24 09:55:00,
2013-03-24 05:58:00,30.9,23.9,29.83,SW,222,0.0,3.0,75,0.00,,,0.00,VWS V14.01,2013-03-24 09:58:00,
2013-03-24 05:59:00,30.9,23.9,29.83,SW,222,1.0,3.0,75,0.00,,,0.00,VWS V14.01,2013-03-24 09:59:00,
2013-03-24 06:00:00,30.9,23.9,29.83,SW,223,1.0,1.0,75,0.00,,,0.00,VWS V14.01,2013-03-24 10:00:00,
2013-03-24 06:03:00,30.9,23.9,29.84,SW,227,0.0,3.0,75,0.00,,,0.00,VWS V14.01,2013-03-24 10:03:00,
2013-03-24 06:04:00,30.9,23.6,29.84,SW,227,1.0,3.0,74,0.00,,,0.00,VWS V14.01,2013-03-24 10:04:00,
2013-03-24 06:05:00,30.9,23.9,29.84,SW,226,1.0,1.0,75,0.00,,,0.00,VWS V14.01,2013-03-24 10:05:00,
2013-03-24 06:08:00,31.0,24.0,29.84,SW,227,0.0,2.0,75,0.00,,,0.00,VWS V14.01,2013-03-24 10:08:00,
2013-03-24 06:09:00,31.0,24.0,29.84,SW,227,0.0,2.0,75,0.00,,,0.00,VWS V14.01,2013-03-24 10:09:00,
2013-03-24 06:10:00,31.0,23.7,29.84,SW,227,0.0,0.0,74,0.00,,,0.00,VWS V14.01,2013-03-24 10:10:00,
2013-03-24 06:14:00,31.0,24.0,29.84,NW,314,0.0,5.0,75,0.00,,,0.00,VWS V14.01,2013-03-24 10:14:00,
2013-03-24 06:15:00,31.0,24.0,29.84,NW,314,0.0,2.0,75,0.00,,,0.00,VWS V14.01,2013-03-24 10:15:00,
2013-03-24 06:19:00,31.0,24.0,29.84,SSW,205,2.0,4.0,75,0.00,,,0.00,VWS V14.01,2013-03-24 10:19:00,
2013-03-24 06:20:00,31.0,24.0,29.84,SSW,206,0.0,1.0,75,0.00,,,0.00,VWS V14.01,2013-03-24 10:20:00,
2013-03-24 06:24:00,31.0,24.0,29.84,SSW,208,3.0,3.0,75,0.00,,,0.00,VWS V14.01,2013-03-24 10:24:00,
2013-03-24 06:25:00,31.0,24.0,29.85,SSW,213,2.0,3.0,75,0.00,,,0.00,VWS V14.01,2013-03-24 10:25:00,
2013-03-24 06:29:00,31.0,24.0,29.85,SW,223,0.0,4.0,75,0.00,,,0.00,VWS V14.01,2013-03-24 10:29:00,
2013-03-24 06:30:00,31.0,24.0,29.85,SW,223,0.0,0.0,75,0.00,,,0.00,VWS V14.01,2013-03-24 10:30:00,
2013-03-24 06:34:00,31.0,24.0,29.85,SW,222,1.0,2.0,75,0.00,,,0.00,VWS V14.01,2013-03-24 10:34:00,
2013-03-24 06:35:00,31.0,24.0,29.85,SW,223,0.0,2.0,75,0.00,,,0.00,VWS V14.01,2013-03-24 10:35:00,
2013-03-24 06:39:00,31.0,24.0,29.85,West,261,2.0,4.0,75,0.00,,,0.00,VWS V14.01,2013-03-24 10:39:00,
2013-03-24 06:40:00,31.0,24.0,29.85,West,260,0.0,4.0,75,0.00,,,0.00,VWS V14.01,2013-03-24 10:40:00,
2013-03-24 06:41:00,31.0,24.0,29.85,West,260,0.0,1.0,75,0.00,,,0.00,VWS V14.01,2013-03-24 10:41:00,
2013-03-24 06:44:00,31.0,24.0,29.85,WSW,252,0.0,4.0,75,0.00,,,0.00,VWS V14.01,2013-03-24 10:44:00,
2013-03-24 06:45:00,31.0,24.0,29.85,West,265,2.0,5.0,75,0.00,,,0.00,VWS V14.01,2013-03-24 10:45:00,
2013-03-24 06:46:00,31.0,24.0,29.85,West,265,0.0,5.0,75,0.00,,,0.00,VWS V14.01,2013-03-24 10:46:00,
2013-03-24 06:49:00,31.0,24.0,29.86,West,265,1.0,5.0,75,0.00,,,0.00,VWS V14.01,2013-03-24 10:49:00,
2013-03-24 06:50:00,31.0,24.0,29.86,WSW,253,1.0,4.0,75,0.00,,,0.00,VWS V14.01,2013-03-24 10:50:00,
2013-03-24 06:51:00,31.1,24.1,29.86,WSW,252,0.0,4.0,75,0.00,,,0.00,VWS V14.01,2013-03-24 10:51:00,
2013-03-24 06:54:00,31.1,24.1,29.86,WSW,252,2.0,4.0,75,0.00,,,0.00,VWS V14.01,2013-03-24 10:54:00,
2013-03-24 06:55:00,31.1,24.1,29.87,WSW,252,1.0,1.0,75,0.00,,,0.00,VWS V14.01,2013-03-24 10:55:00,
2013-03-24 06:57:00,31.1,24.1,29.87,WSW,252,1.0,3.0,75,0.00,,,0.00,VWS V14.01,2013-03-24 10:57:00,
2013-03-24 06:59:00,31.2,24.2,29.87,WSW,252,0.0,3.0,75,0.00,,,0.00,VWS V14.01,2013-03-24 10:59:00,
2013-03-24 07:00:00,31.2,24.2,29.88,WSW,252,0.0,0.0,75,0.00,,,0.00,VWS V14.01,2013-03-24 11:00:00,
2013-03-24 07:02:00,31.2,24.2,29.88,WSW,252,0.0,0.0,75,0.00,,,0.00,VWS V14.01,2013-03-24 11:02:00,
2013-03-24 07:04:00,31.2,24.2,29.88,WSW,250,3.0,4.0,75,0.00,,,0.00,VWS V14.01,2013-03-24 11:04:00,
2013-03-24 07:05:00,31.2,24.2,29.88,SW,231,0.0,4.0,75,0.00,,,0.00,VWS V14.01,2013-03-24 11:05:00,
2013-03-24 07:07:00,31.2,24.5,29.88,SW,231,0.0,4.0,76,0.00,,,0.00,VWS V14.01,2013-03-24 11:07:00,
2013-03-24 07:09:00,31.2,24.5,29.88,SW,231,0.0,4.0,76,0.00,,,0.00,VWS V14.01,2013-03-24 11:09:00,
2013-03-24 07:10:00,31.1,24.4,29.89,SW,230,0.0,0.0,76,0.00,,,0.00,VWS V14.01,2013-03-24 11:10:00,
2013-03-24 07:12:00,31.1,24.4,29.89,SW,231,0.0,0.0,76,0.00,,,0.00,VWS V14.01,2013-03-24 11:12:00,
2013-03-24 07:14:00,31.1,24.4,29.89,SW,231,0.0,0.0,76,0.00,,,0.00,VWS V14.01,2013-03-24 11:14:00,
2013-03-24 07:15:00,31.1,24.4,29.89,SW,231,0.0,0.0,76,0.00,,,0.00,VWS V14.01,2013-03-24 11:15:00,
2013-03-24 07:16:00,31.1,24.4,29.89,SW,228,0.0,2.0,76,0.00,,,0.00,VWS V14.01,2013-03-24 11:16:00,
2013-03-24 07:17:00,31.0,24.3,29.89,SW,228,0.0,2.0,76,0.00,,,0.00,VWS V14.01,2013-03-24 11:17:00,
2013-03-24 07:19:00,31.0,24.3,29.89,SW,227,1.0,2.0,76,0.00,,,0.00,VWS V14.01,2013-03-24 11:19:00,
2013-03-24 07:20:00,31.1,24.4,29.89,SW,226,2.0,2.0,76,0.00,,,0.00,VWS V14.01,2013-03-24 11:20:00,
2013-03-24 07:21:00,31.1,24.4,29.89,SW,226,0.0,2.0,76,0.00,,,0.00,VWS V14.01,2013-03-24 11:21:00,
2013-03-24 07:22:00,31.1,24.4,29.89,SW,226,0.0,2.0,76,0.00,,,0.00,VWS V14.01,2013-03-24 11:22:00,
2013-03-24 07:24:00,31.1,24.4,29.89,SW,227,0.0,2.0,76,0.00,,,0.00,VWS V14.01,2013-03-24 11:24:00,
2013-03-24 07:25:00,31.1,24.4,29.90,SW,226,0.0,0.0,76,0.00,,,0.00,VWS V14.01,2013-03-24 11:25:00,
2013-03-24 07:26:00,31.1,24.4,29.90,SW,227,0.0,0.0,76,0.00,,,0.00,VWS V14.01,2013-03-24 11:26:00,
2013-03-24 07:27:00,31.1,24.4,29.90,SW,226,0.0,0.0,76,0.00,,,0.00,VWS V14.01,2013-03-24 11:27:00,
2013-03-24 07:29:00,31.1,24.4,29.90,SW,226,0.0,0.0,76,0.00,,,0.00,VWS V14.01,2013-03-24 11:29:00,
2013-03-24 07:30:00,31.1,24.4,29.90,SW,227,0.0,0.0,76,0.00,,,0.00,VWS V14.01,2013-03-24 11:30:00,
2013-03-24 07:31:00,31.2,24.5,29.90,SE,146,2.0,3.0,76,0.00,,,0.00,VWS V14.01,2013-03-24 11:31:00,
2013-03-24 07:33:00,31.2,24.5,29.90,SE,146,0.0,3.0,76,0.00,,,0.00,VWS V14.01,2013-03-24 11:33:00,
2013-03-24 07:34:00,31.2,24.5,29.91,South,184,0.0,0.0,76,0.00,,,0.00,VWS V14.01,2013-03-24 11:34:00,
2013-03-24 07:35:00,31.2,24.5,29.91,South,184,0.0,0.0,76,0.00,,,0.00,VWS V14.01,2013-03-24 11:35:00,
2013-03-24 07:37:00,31.3,24.6,29.90,South,184,0.0,0.0,76,0.00,,,0.00,VWS V14.01,2013-03-24 11:37:00,
2013-03-24 07:38:00,31.3,24.6,29.90,South,184,0.0,0.0,76,0.00,,,0.00,VWS V14.01,2013-03-24 11:38:00,
2013-03-24 07:39:00,31.3,24.6,29.91,South,184,0.0,0.0,76,0.00,,,0.00,VWS V14.01,2013-03-24 11:39:00,
2013-03-24 07:40:00,31.3,24.6,29.91,South,184,0.0,0.0,76,0.00,,,0.00,VWS V14.01,2013-03-24 11:40:00,
2013-03-24 07:42:00,31.4,24.7,29.90,South,184,0.0,1.0,76,0.00,,,0.00,VWS V14.01,2013-03-24 11:42:00,
2013-03-24 07:43:00,31.4,24.7,29.90,South,184,0.0,1.0,76,0.00,,,0.00,VWS V14.01,2013-03-24 11:43:00,
2013-03-24 07:44:00,31.4,24.7,29.90,South,186,0.0,0.0,76,0.00,,,0.00,VWS V14.01,2013-03-24 11:44:00,
2013-03-24 07:45:00,31.4,24.7,29.90,South,186,0.0,0.0,76,0.00,,,0.00,VWS V14.01,2013-03-24 11:45:00,
2013-03-24 07:47:00,31.4,25.0,29.90,South,186,0.0,0.0,77,0.00,,,0.00,VWS V14.01,2013-03-24 11:47:00,
2013-03-24 07:48:00,31.4,25.0,29.90,South,187,0.0,2.0,77,0.00,,,0.00,VWS V14.01,2013-03-24 11:48:00,
2013-03-24 07:49:00,31.5,25.1,29.90,South,187,1.0,2.0,77,0.00,,,0.00,VWS V14.01,2013-03-24 11:49:00,
2013-03-24 07:50:00,31.4,25.0,29.90,South,186,0.0,2.0,77,0.00,,,0.00,VWS V14.01,2013-03-24 11:50:00,
2013-03-24 07:53:00,31.5,25.1,29.90,South,187,0.0,2.0,77,0.00,,,0.00,VWS V14.01,2013-03-24 11:53:00,
2013-03-24 07:54:00,31.5,24.8,29.90,SSW,197,3.0,3.0,76,0.00,,,0.00,VWS V14.01,2013-03-24 11:54:00,
2013-03-24 07:55:00,31.5,25.1,29.90,SSW,196,0.0,1.0,77,0.00,,,0.00,VWS V14.01,2013-03-24 11:55:00,
2013-03-24 07:58:00,31.5,25.1,29.90,SSW,198,2.0,2.0,77,0.00,,,0.00,VWS V14.01,2013-03-24 11:58:00,
2013-03-24 07:59:00,31.5,24.8,29.90,SSW,198,0.0,2.0,76,0.00,,,0.00,VWS V14.01,2013-03-24 11:59:00,
2013-03-24 08:00:00,31.5,24.8,29.90,SSW,198,0.0,2.0,76,0.00,,,0.00,VWS V14.01,2013-03-24 12:00:00,
2013-03-24 08:03:00,31.5,24.8,29.90,SSW,198,0.0,2.0,76,0.00,,,0.00,VWS V14.01,2013-03-24 12:03:00,
2013-03-24 08:04:00,31.6,24.9,29.90,SSW,198,0.0,2.0,76,0.00,,,0.00,VWS V14.01,2013-03-24 12:04:00,
2013-03-24 08:05:00,31.6,24.9,29.90,SSW,198,0.0,0.0,76,0.00,,,0.00,VWS V14.01,2013-03-24 12:05:00,
2013-03-24 08:08:00,31.6,24.9,29.90,SSW,198,0.0,3.0,76,0.00,,,0.00,VWS V14.01,2013-03-24 12:08:00,
2013-03-24 08:09:00,31.6,24.9,29.90,SSW,198,0.0,3.0,76,0.00,,,0.00,VWS V14.01,2013-03-24 12:09:00,
2013-03-24 08:10:00,31.6,24.9,29.90,SSW,198,0.0,0.0,76,0.00,,,0.00,VWS V14.01,2013-03-24 12:10:00,
2013-03-24 08:11:00,31.6,24.9,29.90,SSW,198,0.0,0.0,76,0.00,,,0.00,VWS V14.01,2013-03-24 12:11:00,
2013-03-24 08:13:00,31.6,24.9,29.90,SSW,198,0.0,0.0,76,0.00,,,0.00,VWS V14.01,2013-03-24 12:13:00,
2013-03-24 08:14:00,31.7,25.0,29.90,SSW,198,0.0,1.0,76,0.00,,,0.00,VWS V14.01,2013-03-24 12:14:00,
2013-03-24 08:15:00,31.7,25.0,29.90,SSW,198,0.0,0.0,76,0.00,,,0.00,VWS V14.01,2013-03-24 12:15:00,
2013-03-24 08:16:00,31.7,25.0,29.90,SSW,198,0.0,0.0,76,0.00,,,0.00,VWS V14.01,2013-03-24 12:16:00,
2013-03-24 08:18:00,31.8,25.1,29.90,SSW,198,0.0,0.0,76,0.00,,,0.00,VWS V14.01,2013-03-24 12:18:00,
2013-03-24 08:19:00,31.8,25.1,29.90,SSW,198,0.0,0.0,76,0.00,,,0.00,VWS V14.01,2013-03-24 12:19:00,
2013-03-24 08:20:00,31.8,25.1,29.90,SSW,198,0.0,0.0,76,0.00,,,0.00,VWS V14.01,2013-03-24 12:20:00,
2013-03-24 08:22:00,31.8,25.1,29.90,SSW,198,0.0,0.0,76,0.00,,,0.00,VWS V14.01,2013-03-24 12:22:00,
2013-03-24 08:23:00,31.9,25.2,29.90,SSW,198,0.0,0.0,76,0.00,,,0.00,VWS V14.01,2013-03-24 12:23:00,
2013-03-24 08:24:00,31.9,24.9,29.90,SSW,198,0.0,0.0,75,0.00,,,0.00,VWS V14.01,2013-03-24 12:24:00,
2013-03-24 08:25:00,31.9,24.9,29.90,SSW,198,2.0,2.0,75,0.00,,,0.00,VWS V14.01,2013-03-24 12:25:00,
2013-03-24 08:27:00,32.0,25.0,29.90,SSW,198,0.0,2.0,75,0.00,,,0.00,VWS V14.01,2013-03-24 12:27:00,
2013-03-24 08:28:00,32.0,25.0,29.90,WSW,250,2.0,3.0,75,0.00,,,0.00,VWS V14.01,2013-03-24 12:28:00,
2013-03-24 08:30:00,32.0,25.0,29.90,WSW,249,1.0,3.0,75,0.00,,,0.00,VWS V14.01,2013-03-24 12:30:00,
2013-03-24 08:32:00,32.0,25.0,29.91,WSW,252,1.0,3.0,75,0.00,,,0.00,VWS V14.01,2013-03-24 12:32:00,
2013-03-24 08:33:00,32.1,25.1,29.90,WSW,252,0.0,3.0,75,0.00,,,0.00,VWS V14.01,2013-03-24 12:33:00,
2013-03-24 08:35:00,32.1,25.1,29.90,WSW,252,0.0,0.0,75,0.00,,,0.00,VWS V14.01,2013-03-24 12:35:00,
2013-03-24 08:37:00,32.1,25.1,29.90,WSW,244,2.0,2.0,75,0.00,,,0.00,VWS V14.01,2013-03-24 12:37:00,
2013-03-24 08:39:00,32.2,25.2,29.90,WSW,244,0.0,2.0,75,0.00,,,0.00,VWS V14.01,2013-03-24 12:39:00,
2013-03-24 08:40:00,32.2,25.2,29.90,WSW,244,1.0,1.0,75,0.00,,,0.00,VWS V14.01,2013-03-24 12:40:00,
2013-03-24 08:42:00,32.3,25.0,29.90,SW,224,0.0,4.0,74,0.00,,,0.00,VWS V14.01,2013-03-24 12:42:00,
2013-03-24 08:55:00,32.3,25.0,29.90,SW,224,0.0,4.0,74,0.00,,,0.00,VWS V14.01,2013-03-24 12:55:00,
2013-03-24 09:00:00,32.6,25.2,29.90,SW,225,1.0,4.0,74,0.00,,,0.00,VWS V14.01,2013-03-24 13:00:00,
2013-03-24 09:05:00,32.7,25.3,29.89,SSE,158,2.0,5.0,74,0.00,,,0.00,VWS V14.01,2013-03-24 13:05:00,
2013-03-24 09:10:00,32.8,25.4,29.89,SSE,158,0.0,3.0,74,0.00,,,0.00,VWS V14.01,2013-03-24 13:10:00,
2013-03-24 09:15:00,33.0,25.3,29.90,SW,225,1.0,5.0,73,0.00,,,0.00,VWS V14.01,2013-03-24 13:15:00,
2013-03-24 09:20:00,33.2,25.5,29.90,South,180,1.0,4.0,73,0.00,,,0.00,VWS V14.01,2013-03-24 13:20:00,
2013-03-24 09:25:00,33.3,25.3,29.90,SSW,202,2.0,6.0,72,0.00,,,0.00,VWS V14.01,2013-03-24 13:25:00,
2013-03-24 09:30:00,33.3,25.3,29.90,WSW,248,3.0,9.0,72,0.00,,,0.00,VWS V14.01,2013-03-24 13:30:00,
2013-03-24 09:35:00,33.3,25.3,29.90,West,270,3.0,7.0,72,0.00,,,0.00,VWS V14.01,2013-03-24 13:35:00,
2013-03-24 09:40:00,33.3,25.3,29.90,South,180,1.0,3.0,72,0.00,,,0.00,VWS V14.01,2013-03-24 13:40:00,
2013-03-24 09:45:00,33.5,25.5,29.90,West,270,1.0,4.0,72,0.00,,,0.00,VWS V14.01,2013-03-24 13:45:00,
2013-03-24 09:50:00,33.6,25.2,29.89,SE,135,1.0,4.0,71,0.00,,,0.00,VWS V14.01,2013-03-24 13:50:00,
2013-03-24 09:55:00,33.8,25.4,29.89,SSW,202,2.0,7.0,71,0.00,,,0.00,VWS V14.01,2013-03-24 13:55:00,
2013-03-24 10:00:00,34.0,25.3,29.90,South,180,3.0,7.0,70,0.00,,,0.00,VWS V14.01,2013-03-24 14:00:00,
2013-03-24 10:05:00,34.1,25.4,29.89,SW,225,1.0,5.0,70,0.00,,,0.00,VWS V14.01,2013-03-24 14:05:00,
2013-03-24 10:10:00,34.2,25.5,29.89,SSW,202,2.0,7.0,70,0.00,,,0.00,VWS V14.01,2013-03-24 14:10:00,
2013-03-24 10:15:00,34.4,25.6,29.89,SW,225,3.0,6.0,70,0.00,,,0.00,VWS V14.01,2013-03-24 14:15:00,
2013-03-24 10:20:00,34.4,25.3,29.89,SW,225,3.0,7.0,69,0.00,,,0.00,VWS V14.01,2013-03-24 14:20:00,
2013-03-24 10:25:00,34.4,25.6,29.88,SW,225,2.0,10.0,70,0.00,,,0.00,VWS V14.01,2013-03-24 14:25:00,
2013-03-24 10:30:00,34.6,25.5,29.88,SW,225,3.0,12.0,69,0.00,,,0.00,VWS V14.01,2013-03-24 14:30:00,
2013-03-24 10:35:00,34.8,25.7,29.88,East,90,2.0,6.0,69,0.00,,,0.00,VWS V14.01,2013-03-24 14:35:00,
2013-03-24 10:40:00,34.8,25.7,29.88,South,180,2.0,6.0,69,0.00,,,0.00,VWS V14.01,2013-03-24 14:40:00,
2013-03-24 10:45:00,35.0,25.5,29.88,SW,225,3.0,10.0,68,0.00,,,0.00,VWS V14.01,2013-03-24 14:45:00,
2013-03-24 10:50:00,34.9,25.4,29.88,SSW,202,3.0,11.0,68,0.00,,,0.00,VWS V14.01,2013-03-24 14:50:00,
2013-03-24 10:55:00,34.8,25.3,29.89,West,270,2.0,10.0,68,0.00,,,0.00,VWS V14.01,2013-03-24 14:55:00,
2013-03-24 11:00:00,34.7,25.6,29.89,South,180,2.0,9.0,69,0.00,,,0.00,VWS V14.01,2013-03-24 15:00:00,
2013-03-24 11:05:00,34.8,25.3,29.89,SSW,202,2.0,6.0,68,0.00,,,0.00,VWS V14.01,2013-03-24 15:05:00,
2013-03-24 11:10:00,34.9,25.4,29.89,WSW,248,2.0,8.0,68,0.00,,,0.00,VWS V14.01,2013-03-24 15:10:00,
2013-03-24 11:15:00,35.0,25.5,29.89,WSW,248,2.0,10.0,68,0.00,,,0.00,VWS V14.01,2013-03-24 15:15:00,
2013-03-24 11:20:00,35.1,25.3,29.89,SW,225,2.0,7.0,67,0.00,,,0.00,VWS V14.01,2013-03-24 15:20:00,
2013-03-24 11:25:00,35.0,25.2,29.88,SW,225,2.0,7.0,67,0.00,,,0.00,VWS V14.01,2013-03-24 15:25:00,
2013-03-24 11:30:00,35.0,25.5,29.89,West,270,2.0,9.0,68,0.00,,,0.00,VWS V14.01,2013-03-24 15:30:00,
2013-03-24 11:35:00,35.1,25.6,29.90,SSW,202,2.0,7.0,68,0.00,,,0.00,VWS V14.01,2013-03-24 15:35:00,
2013-03-24 11:40:00,35.3,25.5,29.90,WSW,248,2.0,7.0,67,0.00,,,0.00,VWS V14.01,2013-03-24 15:40:00,
2013-03-24 11:45:00,35.4,25.9,29.89,West,270,2.0,4.0,68,0.00,,,0.00,VWS V14.01,2013-03-24 15:45:00,
2013-03-24 11:50:00,35.5,25.6,29.88,WSW,248,3.0,9.0,67,0.00,,,0.00,VWS V14.01,2013-03-24 15:50:00,
2013-03-24 11:55:00,35.5,25.6,29.89,WSW,248,5.0,11.0,67,0.00,,,0.00,VWS V14.01,2013-03-24 15:55:00,
2013-03-24 12:00:00,35.3,25.1,29.88,WSW,248,4.0,9.0,66,0.00,,,0.00,VWS V14.01,2013-03-24 16:00:00,
2013-03-24 12:05:00,35.2,25.0,29.88,SW,225,5.0,13.0,66,0.00,,,0.00,VWS V14.01,2013-03-24 16:05:00,
2013-03-24 12:10:00,35.3,26.2,29.88,ESE,112,3.0,5.0,69,0.00,,,0.00,VWS V14.01,2013-03-24 16:10:00,
2013-03-24 12:15:00,35.5,25.6,29.89,SW,225,3.0,6.0,67,0.00,,,0.00,VWS V14.01,2013-03-24 16:15:00,
2013-03-24 12:20:00,35.6,25.7,29.89,West,270,3.0,9.0,67,0.00,,,0.00,VWS V14.01,2013-03-24 16:20:00,
2013-03-24 12:25:00,35.6,25.0,29.89,West,270,1.0,10.0,65,0.00,,,0.00,VWS V14.01,2013-03-24 16:25:00,
2013-03-24 12:30:00,35.6,25.4,29.89,West,270,2.0,9.0,66,0.00,,,0.00,VWS V14.01,2013-03-24 16:30:00,
2013-03-24 12:35:00,35.6,25.4,29.89,SW,225,1.0,6.0,66,0.00,,,0.00,VWS V14.01,2013-03-24 16:35:00,
2013-03-24 12:40:00,35.6,25.7,29.89,SW,225,2.0,10.0,67,0.00,,,0.00,VWS V14.01,2013-03-24 16:40:00,
2013-03-24 12:45:00,35.6,25.4,29.88,SE,135,2.0,5.0,66,0.00,,,0.00,VWS V14.01,2013-03-24 16:45:00,
2013-03-24 12:50:00,35.5,25.6,29.89,South,180,1.0,4.0,67,0.00,,,0.00,VWS V14.01,2013-03-24 16:50:00,
2013-03-24 12:55:00,35.4,25.5,29.89,WSW,248,2.0,7.0,67,0.00,,,0.00,VWS V14.01,2013-03-24 16:55:00,
2013-03-24 13:00:00,35.4,25.2,29.89,SW,225,3.0,7.0,66,0.00,,,0.00,VWS V14.01,2013-03-24 17:00:00,
2013-03-24 13:05:00,35.4,25.5,29.89,WSW,248,1.0,6.0,67,0.00,,,0.00,VWS V14.01,2013-03-24 17:05:00,
2013-03-24 13:10:00,35.6,25.7,29.88,West,270,1.0,5.0,67,0.00,,,0.00,VWS V14.01,2013-03-24 17:10:00,
2013-03-24 13:15:00,35.7,25.8,29.88,WSW,248,3.0,7.0,67,0.00,,,0.00,VWS V14.01,2013-03-24 17:15:00,
2013-03-24 13:20:00,35.7,25.5,29.88,SW,225,4.0,9.0,66,0.00,,,0.00,VWS V14.01,2013-03-24 17:20:00,
2013-03-24 13:27:00,35.7,25.5,29.88,SW,225,4.0,9.0,66,0.00,,,0.00,VWS V14.01,2013-03-24 17:27:00,
2013-03-24 13:30:00,36.3,26.0,29.88,SE,137,3.0,7.0,66,0.00,,,0.00,VWS V14.01,2013-03-24 17:30:00,
2013-03-24 13:32:00,36.4,26.1,29.87,SW,236,1.0,4.0,66,0.00,,,0.00,VWS V14.01,2013-03-24 17:32:00,
2013-03-24 13:35:00,36.4,25.8,29.88,WSW,257,0.0,6.0,65,0.00,,,0.00,VWS V14.01,2013-03-24 17:35:00,
2013-03-24 13:37:00,36.4,25.4,29.88,WSW,257,1.0,8.0,64,0.00,,,0.00,VWS V14.01,2013-03-24 17:37:00,
2013-03-24 13:38:00,36.4,25.4,29.88,WNW,291,5.0,8.0,64,0.00,,,0.00,VWS V14.01,2013-03-24 17:38:00,
2013-03-24 13:40:00,36.3,25.3,29.87,WSW,257,2.0,8.0,64,0.00,,,0.00,VWS V14.01,2013-03-24 17:40:00,
2013-03-24 13:42:00,36.3,25.3,29.88,West,266,3.0,11.0,64,0.00,,,0.00,VWS V14.01,2013-03-24 17:42:00,
2013-03-24 13:43:00,36.3,25.3,29.88,WSW,253,1.0,11.0,64,0.00,,,0.00,VWS V14.01,2013-03-24 17:43:00,
2013-03-24 13:45:00,36.3,25.7,29.87,WSW,239,2.0,11.0,65,0.00,,,0.00,VWS V14.01,2013-03-24 17:45:00,
2013-03-24 13:47:00,36.5,25.9,29.87,SSE,166,1.0,11.0,65,0.00,,,0.00,VWS V14.01,2013-03-24 17:47:00,
2013-03-24 13:48:00,36.5,25.5,29.87,SSW,203,0.0,11.0,64,0.00,,,0.00,VWS V14.01,2013-03-24 17:48:00,
2013-03-24 13:50:00,36.6,26.0,29.87,SW,219,4.0,11.0,65,0.00,,,0.00,VWS V14.01,2013-03-24 17:50:00,
2013-03-24 13:52:00,36.8,25.4,29.87,WSW,237,9.0,12.0,63,0.00,,,0.00,VWS V14.01,2013-03-24 17:52:00,
2013-03-24 13:53:00,36.8,25.4,29.87,NNW,333,3.0,12.0,63,0.00,,,0.00,VWS V14.01,2013-03-24 17:53:00,
2013-03-24 13:55:00,36.7,25.3,29.87,SW,223,5.0,12.0,63,0.00,,,0.00,VWS V14.01,2013-03-24 17:55:00,
2013-03-24 13:57:00,36.7,25.7,29.87,SW,222,4.0,9.0,64,0.00,,,0.00,VWS V14.01,2013-03-24 17:57:00,
2013-03-24 13:58:00,36.7,25.7,29.87,SW,234,1.0,9.0,64,0.00,,,0.00,VWS V14.01,2013-03-24 17:58:00,
2013-03-24 14:00:00,36.7,25.7,29.87,WSW,238,6.0,9.0,64,0.00,,,0.00,VWS V14.01,2013-03-24 18:00:00,
2013-03-24 14:03:00,36.6,24.8,29.86,WSW,253,2.0,12.0,62,0.00,,,0.00,VWS V14.01,2013-03-24 18:03:00,
2013-03-24 14:05:00,36.6,25.2,29.86,WSW,242,5.0,12.0,63,0.00,,,0.00,VWS V14.01,2013-03-24 18:05:00,
2013-03-24 14:08:00,36.6,25.2,29.87,WSW,242,5.0,9.0,63,0.00,,,0.00,VWS V14.01,2013-03-24 18:08:00,
2013-03-24 14:10:00,36.7,25.3,29.87,SW,236,2.0,9.0,63,0.00,,,0.00,VWS V14.01,2013-03-24 18:10:00,
2013-03-24 14:13:00,37.0,26.0,29.86,SW,215,5.0,8.0,64,0.00,,,0.00,VWS V14.01,2013-03-24 18:13:00,
2013-03-24 14:15:00,37.1,26.1,29.86,WSW,241,5.0,8.0,64,0.00,,,0.00,VWS V14.01,2013-03-24 18:15:00,
2013-03-24 14:18:00,37.7,26.3,29.86,West,264,10.0,11.0,63,0.00,,,0.00,VWS V14.01,2013-03-24 18:18:00,
2013-03-24 14:20:00,37.9,26.1,29.86,West,273,4.0,11.0,62,0.00,,,0.00,VWS V14.01,2013-03-24 18:20:00,
2013-03-24 14:23:00,38.0,26.1,29.87,WNW,288,4.0,7.0,62,0.00,,,0.00,VWS V14.01,2013-03-24 18:23:00,
2013-03-24 14:24:00,38.0,26.1,29.87,WNW,299,0.0,7.0,62,0.00,,,0.00,VWS V14.01,2013-03-24 18:24:00,
2013-03-24 14:25:00,38.1,26.6,29.87,SW,230,5.0,7.0,63,0.00,,,0.00,VWS V14.01,2013-03-24 18:25:00,
2013-03-24 14:28:00,38.0,25.8,29.86,ENE,63,4.0,7.0,61,0.00,,,0.00,VWS V14.01,2013-03-24 18:28:00,
2013-03-24 14:29:00,37.9,25.7,29.86,East,81,2.0,7.0,61,0.00,,,0.00,VWS V14.01,2013-03-24 18:29:00,
2013-03-24 14:30:00,37.9,26.1,29.86,NE,55,0.0,7.0,62,0.00,,,0.00,VWS V14.01,2013-03-24 18:30:00,
2013-03-24 14:33:00,37.8,26.0,29.86,WNW,287,3.0,13.0,62,0.00,,,0.00,VWS V14.01,2013-03-24 18:33:00,
2013-03-24 14:34:00,37.8,25.6,29.86,West,263,4.0,13.0,61,0.00,,,0.00,VWS V14.01,2013-03-24 18:34:00,
2013-03-24 14:35:00,37.8,25.6,29.86,SSW,210,6.0,6.0,61,0.00,,,0.00,VWS V14.01,2013-03-24 18:35:00,
2013-03-24 14:38:00,37.7,25.9,29.86,WSW,252,0.0,9.0,62,0.00,,,0.00,VWS V14.01,2013-03-24 18:38:00,
2013-03-24 14:39:00,37.8,26.0,29.87,SSW,201,2.0,9.0,62,0.00,,,0.00,VWS V14.01,2013-03-24 18:39:00,
2013-03-24 14:40:00,37.8,26.0,29.86,WSW,245,2.0,2.0,62,0.00,,,0.00,VWS V14.01,2013-03-24 18:40:00,
2013-03-24 14:43:00,38.0,25.8,29.86,ESE,117,3.0,5.0,61,0.00,,,0.00,VWS V14.01,2013-03-24 18:43:00,
2013-03-24 14:44:00,37.9,25.7,29.86,SW,215,3.0,3.0,61,0.00,,,0.00,VWS V14.01,2013-03-24 18:44:00,
2013-03-24 14:45:00,38.0,25.8,29.86,WSW,245,3.0,4.0,61,0.00,,,0.00,VWS V14.01,2013-03-24 18:45:00,
2013-03-24 14:48:00,37.8,25.6,29.86,South,186,3.0,7.0,61,0.00,,,0.00,VWS V14.01,2013-03-24 18:48:00,
2013-03-24 14:49:00,37.7,25.5,29.86,WSW,244,6.0,7.0,61,0.00,,,0.00,VWS V14.01,2013-03-24 18:49:00,
2013-03-24 14:50:00,37.7,25.5,29.86,SW,236,7.0,9.0,61,0.00,,,0.00,VWS V14.01,2013-03-24 18:50:00,
2013-03-24 14:53:00,37.4,25.6,29.86,WSW,238,1.0,9.0,62,0.00,,,0.00,VWS V14.01,2013-03-24 18:53:00,
2013-03-24 14:54:00,37.4,26.0,29.86,WSW,240,6.0,6.0,63,0.00,,,0.00,VWS V14.01,2013-03-24 18:54:00,
2013-03-24 14:55:00,37.4,26.0,29.86,WSW,244,5.0,6.0,63,0.00,,,0.00,VWS V14.01,2013-03-24 18:55:00,
2013-03-24 14:58:00,37.4,26.0,29.86,East,94,0.0,7.0,63,0.00,,,0.00,VWS V14.01,2013-03-24 18:58:00,
2013-03-24 14:59:00,37.4,26.0,29.86,West,271,7.0,11.0,63,0.00,,,0.00,VWS V14.01,2013-03-24 18:59:00,
2013-03-24 15:00:00,37.4,26.0,29.86,WSW,249,9.0,11.0,63,0.00,,,0.00,VWS V14.01,2013-03-24 19:00:00,
2013-03-24 15:03:00,37.3,25.9,29.86,South,172,1.0,11.0,63,0.00,,,0.00,VWS V14.01,2013-03-24 19:03:00,
2013-03-24 15:05:00,37.2,25.8,29.86,East,84,0.0,3.0,63,0.00,,,0.00,VWS V14.01,2013-03-24 19:05:00,
2013-03-24 15:09:00,37.3,25.9,29.86,West,260,0.0,5.0,63,0.00,,,0.00,VWS V14.01,2013-03-24 19:09:00,
2013-03-24 15:10:00,37.3,25.5,29.86,WSW,242,0.0,6.0,62,0.00,,,0.00,VWS V14.01,2013-03-24 19:10:00,
2013-03-24 15:14:00,37.4,25.6,29.86,SW,235,4.0,7.0,62,0.00,,,0.00,VWS V14.01,2013-03-24 19:14:00,
2013-03-24 15:15:00,37.4,25.2,29.86,SSW,202,2.0,4.0,61,0.00,,,0.00,VWS V14.01,2013-03-24 19:15:00,
2013-03-24 15:19:00,37.5,25.7,29.86,South,188,2.0,4.0,62,0.00,,,0.00,VWS V14.01,2013-03-24 19:19:00,
2013-03-24 15:20:00,37.5,25.7,29.85,SW,223,5.0,5.0,62,0.00,,,0.00,VWS V14.01,2013-03-24 19:20:00,
2013-03-24 15:24:00,37.5,25.7,29.85,West,269,3.0,3.0,62,0.00,,,0.00,VWS V14.01,2013-03-24 19:24:00,
2013-03-24 15:25:00,37.4,25.2,29.85,WSW,246,5.0,5.0,61,0.00,,,0.00,VWS V14.01,2013-03-24 19:25:00,
2013-03-24 15:29:00,37.2,25.0,29.85,SSW,196,4.0,5.0,61,0.00,,,0.00,VWS V14.01,2013-03-24 19:29:00,
2013-03-24 15:30:00,37.2,24.6,29.85,SW,236,5.0,6.0,60,0.00,,,0.00,VWS V14.01,2013-03-24 19:30:00,
2013-03-24 15:31:00,37.1,24.9,29.85,SE,128,2.0,6.0,61,0.00,,,0.00,VWS V14.01,2013-03-24 19:31:00,
2013-03-24 15:34:00,37.1,24.9,29.84,SW,232,0.0,1.0,61,0.00,,,0.00,VWS V14.01,2013-03-24 19:34:00,
2013-03-24 15:35:00,37.1,24.9,29.84,SW,232,0.0,1.0,61,0.00,,,0.00,VWS V14.01,2013-03-24 19:35:00,
2013-03-24 15:36:00,37.1,24.9,29.84,SW,232,0.0,1.0,61,0.00,,,0.00,VWS V14.01,2013-03-24 19:36:00,
2013-03-24 15:37:00,37.1,25.3,29.84,SW,234,3.0,5.0,62,0.00,,,0.00,VWS V14.01,2013-03-24 19:37:00,
2013-03-24 15:39:00,37.1,25.3,29.84,SW,216,8.0,8.0,62,0.00,,,0.00,VWS V14.01,2013-03-24 19:39:00,
2013-03-24 15:40:00,37.2,25.4,29.84,West,262,0.0,10.0,62,0.00,,,0.00,VWS V14.01,2013-03-24 19:40:00,
2013-03-24 15:42:00,37.2,25.4,29.84,SW,229,9.0,10.0,62,0.00,,,0.00,VWS V14.01,2013-03-24 19:42:00,
2013-03-24 15:44:00,37.2,25.0,29.84,WSW,241,0.0,1.0,61,0.00,,,0.00,VWS V14.01,2013-03-24 19:44:00,
2013-03-24 15:45:00,37.2,25.0,29.84,WSW,241,1.0,14.0,61,0.00,,,0.00,VWS V14.01,2013-03-24 19:45:00,
2013-03-24 15:46:00,37.2,25.0,29.84,WSW,240,5.0,12.0,61,0.00,,,0.00,VWS V14.01,2013-03-24 19:46:00,
2013-03-24 15:47:00,37.2,25.0,29.84,West,279,3.0,12.0,61,0.00,,,0.00,VWS V14.01,2013-03-24 19:47:00,
2013-03-24 15:50:00,37.2,25.4,29.83,WNW,290,2.0,3.0,62,0.00,,,0.00,VWS V14.01,2013-03-24 19:50:00,
2013-03-24 15:52:00,37.1,24.9,29.83,SW,226,10.0,11.0,61,0.00,,,0.00,VWS V14.01,2013-03-24 19:52:00,
2013-03-24 15:55:00,37.1,24.5,29.83,SW,234,7.0,7.0,60,0.00,,,0.00,VWS V14.01,2013-03-24 19:55:00,
2013-03-24 15:57:00,37.1,24.5,29.83,WSW,240,13.0,13.0,60,0.00,,,0.00,VWS V14.01,2013-03-24 19:57:00,
2013-03-24 16:00:00,37.1,24.5,29.83,SW,230,4.0,9.0,60,0.00,,,0.00,VWS V14.01,2013-03-24 20:00:00,
2013-03-24 16:02:00,37.1,24.9,29.83,East,94,3.0,9.0,61,0.00,,,0.00,VWS V14.01,2013-03-24 20:02:00,
2013-03-24 16:03:00,37.1,24.9,29.83,NW,306,1.0,9.0,61,0.00,,,0.00,VWS V14.01,2013-03-24 20:03:00,
2013-03-24 16:05:00,37.1,24.5,29.83,SW,225,3.0,11.0,60,0.00,,,0.00,VWS V14.01,2013-03-24 20:05:00,
2013-03-24 16:07:00,37.1,24.5,29.83,ENE,75,1.0,11.0,60,0.00,,,0.00,VWS V14.01,2013-03-24 20:07:00,
2013-03-24 16:08:00,37.2,24.6,29.83,North,350,2.0,11.0,60,0.00,,,0.00,VWS V14.01,2013-03-24 20:08:00,
2013-03-24 16:10:00,37.2,24.6,29.83,SW,223,1.0,5.0,60,0.00,,,0.00,VWS V14.01,2013-03-24 20:10:00,
2013-03-24 16:12:00,37.4,25.2,29.83,SW,222,0.0,5.0,61,0.00,,,0.00,VWS V14.01,2013-03-24 20:12:00,
2013-03-24 16:13:00,37.4,25.2,29.83,SW,223,2.0,5.0,61,0.00,,,0.00,VWS V14.01,2013-03-24 20:13:00,
2013-03-24 16:15:00,37.5,24.9,29.83,WSW,245,2.0,2.0,60,0.00,,,0.00,VWS V14.01,2013-03-24 20:15:00,
2013-03-24 16:17:00,37.5,24.5,29.83,South,188,4.0,14.0,59,0.00,,,0.00,VWS V14.01,2013-03-24 20:17:00,
2013-03-24 16:18:00,37.5,24.5,29.83,SW,220,1.0,14.0,59,0.00,,,0.00,VWS V14.01,2013-03-24 20:18:00,
2013-03-24 16:20:00,37.4,24.4,29.83,SW,225,5.0,7.0,59,0.00,,,0.00,VWS V14.01,2013-03-24 20:20:00,
2013-03-24 16:23:00,37.3,23.9,29.83,West,260,4.0,10.0,58,0.00,,,0.00,VWS V14.01,2013-03-24 20:23:00,
2013-03-24 16:25:00,37.4,24.8,29.83,West,279,6.0,10.0,60,0.00,,,0.00,VWS V14.01,2013-03-24 20:25:00,
2013-03-24 16:26:00,37.4,24.4,29.83,SW,229,2.0,6.0,59,0.00,,,0.00,VWS V14.01,2013-03-24 20:26:00,
2013-03-24 16:28:00,37.5,24.9,29.83,West,268,3.0,6.0,60,0.00,,,0.00,VWS V14.01,2013-03-24 20:28:00,
2013-03-24 16:30:00,37.6,24.6,29.83,SSW,211,3.0,6.0,59,0.00,,,0.00,VWS V14.01,2013-03-24 20:30:00,
2013-03-24 16:31:00,37.7,24.7,29.83,WSW,247,2.0,12.0,59,0.00,,,0.00,VWS V14.01,2013-03-24 20:31:00,
2013-03-24 16:33:00,37.7,24.7,29.83,WSW,242,3.0,12.0,59,0.00,,,0.00,VWS V14.01,2013-03-24 20:33:00,
2013-03-24 16:35:00,37.7,24.7,29.83,SW,232,4.0,12.0,59,0.00,,,0.00,VWS V14.01,2013-03-24 20:35:00,
2013-03-24 16:36:00,37.6,24.2,29.83,SSE,159,0.0,7.0,58,0.00,,,0.00,VWS V14.01,2013-03-24 20:36:00,
2013-03-24 16:38:00,37.6,24.2,29.83,WSW,246,4.0,10.0,58,0.00,,,0.00,VWS V14.01,2013-03-24 20:38:00,
2013-03-24 16:39:00,37.6,24.2,29.83,WSW,247,3.0,10.0,58,0.00,,,0.00,VWS V14.01,2013-03-24 20:39:00,
2013-03-24 16:40:00,37.5,24.1,29.83,WSW,257,0.0,10.0,58,0.00,,,0.00,VWS V14.01,2013-03-24 20:40:00,
2013-03-24 16:42:00,37.4,24.0,29.83,WNW,299,4.0,5.0,58,0.00,,,0.00,VWS V14.01,2013-03-24 20:42:00,
2013-03-24 16:43:00,37.4,24.0,29.83,NE,50,3.0,9.0,58,0.00,,,0.00,VWS V14.01,2013-03-24 20:43:00,
2013-03-24 16:44:00,37.3,24.3,29.83,SW,234,7.0,9.0,59,0.00,,,0.00,VWS V14.01,2013-03-24 20:44:00,
2013-03-24 16:45:00,37.3,23.9,29.83,SW,236,3.0,9.0,58,0.00,,,0.00,VWS V14.01,2013-03-24 20:45:00,
2013-03-24 16:47:00,37.3,24.3,29.82,WSW,248,3.0,7.0,59,0.00,,,0.00,VWS V14.01,2013-03-24 20:47:00,
2013-03-24 16:48:00,37.2,24.2,29.83,WSW,250,5.0,7.0,59,0.00,,,0.00,VWS V14.01,2013-03-24 20:48:00,
2013-03-24 16:49:00,37.2,23.8,29.83,South,191,3.0,11.0,58,0.00,,,0.00,VWS V14.01,2013-03-24 20:49:00,
2013-03-24 16:50:00,37.2,23.8,29.83,West,261,1.0,11.0,58,0.00,,,0.00,VWS V14.01,2013-03-24 20:50:00,
2013-03-24 16:52:00,37.2,24.2,29.83,SW,222,5.0,10.0,59,0.00,,,0.00,VWS V14.01,2013-03-24 20:52:00,
2013-03-24 16:53:00,37.2,24.2,29.82,South,176,4.0,10.0,59,0.00,,,0.00,VWS V14.01,2013-03-24 20:53:00,
2013-03-24 16:54:00,37.2,24.2,29.82,SW,229,6.0,10.0,59,0.00,,,0.00,VWS V14.01,2013-03-24 20:54:00,
2013-03-24 16:55:00,37.2,24.2,29.82,WSW,239,4.0,10.0,59,0.00,,,0.00,VWS V14.01,2013-03-24 20:55:00,
2013-03-24 16:57:00,37.1,23.7,29.82,South,172,3.0,12.0,58,0.00,,,0.00,VWS V14.01,2013-03-24 20:57:00,
2013-03-24 16:58:00,37.1,24.1,29.82,SW,232,1.0,12.0,59,0.00,,,0.00,VWS V14.01,2013-03-24 20:58:00,
2013-03-24 16:59:00,37.1,24.1,29.82,South,184,0.0,12.0,59,0.00,,,0.00,VWS V14.01,2013-03-24 20:59:00,
2013-03-24 17:00:00,37.1,24.1,29.82,South,185,1.0,12.0,59,0.00,,,0.00,VWS V14.01,2013-03-24 21:00:00,
2013-03-24 17:03:00,37.1,24.1,29.82,SW,227,1.0,6.0,59,0.00,,,0.00,VWS V14.01,2013-03-24 21:03:00,
2013-03-24 17:04:00,37.1,24.1,29.82,SSE,159,2.0,6.0,59,0.00,,,0.00,VWS V14.01,2013-03-24 21:04:00,
2013-03-24 17:05:00,37.1,24.1,29.82,SSE,159,2.0,6.0,59,0.00,,,0.00,VWS V14.01,2013-03-24 21:05:00,
2013-03-24 17:08:00,37.1,23.7,29.82,SW,223,1.0,8.0,58,0.00,,,0.00,VWS V14.01,2013-03-24 21:08:00,
2013-03-24 17:09:00,37.1,24.1,29.83,SSE,151,7.0,9.0,59,0.00,,,0.00,VWS V14.01,2013-03-24 21:09:00,
2013-03-24 17:10:00,37.1,24.1,29.83,WSW,254,2.0,4.0,59,0.00,,,0.00,VWS V14.01,2013-03-24 21:10:00,
2013-03-24 17:13:00,37.1,24.5,29.82,SW,218,0.0,6.0,60,0.00,,,0.00,VWS V14.01,2013-03-24 21:13:00,
2013-03-24 17:14:00,37.1,24.5,29.82,SW,221,1.0,6.0,60,0.00,,,0.00,VWS V14.01,2013-03-24 21:14:00,
2013-03-24 17:15:00,37.2,24.6,29.82,ESE,110,4.0,4.0,60,0.00,,,0.00,VWS V14.01,2013-03-24 21:15:00,
2013-03-24 17:18:00,37.2,23.8,29.82,SSE,159,13.0,14.0,58,0.00,,,0.00,VWS V14.01,2013-03-24 21:18:00,
2013-03-24 17:19:00,37.2,23.8,29.82,West,263,6.0,14.0,58,0.00,,,0.00,VWS V14.01,2013-03-24 21:19:00,
2013-03-24 17:20:00,37.1,23.7,29.82,SSW,202,6.0,6.0,58,0.00,,,0.00,VWS V14.01,2013-03-24 21:20:00,
2013-03-24 17:23:00,37.1,24.1,29.82,SSW,213,1.0,6.0,59,0.00,,,0.00,VWS V14.01,2013-03-24 21:23:00,
2013-03-24 17:24:00,37.1,24.1,29.82,SSW,213,0.0,6.0,59,0.00,,,0.00,VWS V14.01,2013-03-24 21:24:00,
2013-03-24 17:25:00,37.1,24.1,29.82,SE,130,2.0,6.0,59,0.00,,,0.00,VWS V14.01,2013-03-24 21:25:00,
2013-03-24 17:26:00,37.1,24.1,29.82,SSW,211,0.0,4.0,59,0.00,,,0.00,VWS V14.01,2013-03-24 21:26:00,
2013-03-24 17:29:00,37.0,24.0,29.83,ESE,112,2.0,5.0,59,0.00,,,0.00,VWS V14.01,2013-03-24 21:29:00,
2013-03-24 17:30:00,37.0,24.0,29.83,ESE,112,1.0,5.0,59,0.00,,,0.00,VWS V14.01,2013-03-24 21:30:00,
2013-03-24 17:32:00,37.0,24.0,29.83,WSW,251,8.0,9.0,59,0.00,,,0.00,VWS V14.01,2013-03-24 21:32:00,
2013-03-24 17:34:00,36.9,23.9,29.83,WSW,240,3.0,9.0,59,0.00,,,0.00,VWS V14.01,2013-03-24 21:34:00,
2013-03-24 17:35:00,36.9,23.9,29.83,WSW,240,2.0,9.0,59,0.00,,,0.00,VWS V14.01,2013-03-24 21:35:00,
2013-03-24 17:37:00,36.8,23.4,29.83,WSW,242,1.0,4.0,58,0.00,,,0.00,VWS V14.01,2013-03-24 21:37:00,
2013-03-24 17:39:00,36.8,23.4,29.83,WSW,240,1.0,4.0,58,0.00,,,0.00,VWS V14.01,2013-03-24 21:39:00,
2013-03-24 17:40:00,36.8,23.4,29.83,WSW,240,2.0,4.0,58,0.00,,,0.00,VWS V14.01,2013-03-24 21:40:00,
2013-03-24 17:42:00,36.8,24.2,29.83,SSE,157,2.0,2.0,60,0.00,,,0.00,VWS V14.01,2013-03-24 21:42:00,
2013-03-24 17:44:00,36.9,24.3,29.83,East,94,1.0,4.0,60,0.00,,,0.00,VWS V14.01,2013-03-24 21:44:00,
2013-03-24 17:45:00,36.9,24.3,29.83,SW,230,2.0,7.0,60,0.00,,,0.00,VWS V14.01,2013-03-24 21:45:00,
2013-03-24 17:47:00,36.9,23.9,29.83,WSW,249,6.0,8.0,59,0.00,,,0.00,VWS V14.01,2013-03-24 21:47:00,
2013-03-24 17:49:00,36.9,23.9,29.83,South,190,1.0,8.0,59,0.00,,,0.00,VWS V14.01,2013-03-24 21:49:00,
2013-03-24 17:50:00,36.9,23.9,29.83,SSW,209,4.0,4.0,59,0.00,,,0.00,VWS V14.01,2013-03-24 21:50:00,
2013-03-24 17:52:00,36.9,24.3,29.83,WSW,256,5.0,6.0,60,0.00,,,0.00,VWS V14.01,2013-03-24 21:52:00,
2013-03-24 17:54:00,36.8,23.8,29.83,SE,145,3.0,12.0,59,0.00,,,0.00,VWS V14.01,2013-03-24 21:54:00,
2013-03-24 17:55:00,36.9,23.9,29.83,SSE,152,6.0,12.0,59,0.00,,,0.00,VWS V14.01,2013-03-24 21:55:00,
2013-03-24 17:57:00,36.9,23.9,29.83,West,259,1.0,12.0,59,0.00,,,0.00,VWS V14.01,2013-03-24 21:57:00,
2013-03-24 17:59:00,37.0,24.4,29.83,ESE,111,0.0,1.0,60,0.00,,,0.00,VWS V14.01,2013-03-24 21:59:00,
2013-03-24 18:00:00,37.0,24.4,29.83,WSW,237,4.0,6.0,60,0.00,,,0.00,VWS V14.01,2013-03-24 22:00:00,
2013-03-24 18:02:00,37.0,24.0,29.83,NW,309,4.0,10.0,59,0.00,,,0.00,VWS V14.01,2013-03-24 22:02:00,
2013-03-24 18:04:00,37.0,24.0,29.83,WSW,246,4.0,6.0,59,0.00,,,0.00,VWS V14.01,2013-03-24 22:04:00,
2013-03-24 18:05:00,37.0,24.0,29.83,SW,229,4.0,6.0,59,0.00,,,0.00,VWS V14.01,2013-03-24 22:05:00,
2013-03-24 18:07:00,37.0,24.0,29.83,SW,227,0.0,7.0,59,0.00,,,0.00,VWS V14.01,2013-03-24 22:07:00,
2013-03-24 18:10:00,37.1,23.7,29.83,South,182,1.0,4.0,58,0.00,,,0.00,VWS V14.01,2013-03-24 22:10:00,
2013-03-24 18:13:00,37.2,24.2,29.83,SW,225,4.0,10.0,59,0.00,,,0.00,VWS V14.01,2013-03-24 22:13:00,
2013-03-24 18:15:00,37.2,23.8,29.83,South,170,0.0,2.0,58,0.00,,,0.00,VWS V14.01,2013-03-24 22:15:00,
2013-03-24 18:18:00,37.1,23.7,29.83,West,271,3.0,10.0,58,0.00,,,0.00,VWS V14.01,2013-03-24 22:18:00,
2013-03-24 18:20:00,37.0,23.6,29.83,WNW,298,3.0,10.0,58,0.00,,,0.00,VWS V14.01,2013-03-24 22:20:00,
2013-03-24 18:23:00,36.8,23.4,29.83,West,280,5.0,13.0,58,0.00,,,0.00,VWS V14.01,2013-03-24 22:23:00,
2013-03-24 18:25:00,36.7,23.7,29.83,West,281,9.0,9.0,59,0.00,,,0.00,VWS V14.01,2013-03-24 22:25:00,
2013-03-24 18:26:00,36.7,23.7,29.83,WSW,258,3.0,9.0,59,0.00,,,0.00,VWS V14.01,2013-03-24 22:26:00,
2013-03-24 18:28:00,36.5,23.1,29.83,West,259,6.0,11.0,58,0.00,,,0.00,VWS V14.01,2013-03-24 22:28:00,
2013-03-24 18:30:00,36.4,23.0,29.83,WNW,299,2.0,11.0,58,0.00,,,0.00,VWS V14.01,2013-03-24 22:30:00,
2013-03-24 18:31:00,36.4,23.0,29.83,WSW,244,4.0,12.0,58,0.00,,,0.00,VWS V14.01,2013-03-24 22:31:00,
2013-03-24 18:33:00,36.3,23.0,29.84,SW,231,5.0,12.0,58,0.00,,,0.00,VWS V14.01,2013-03-24 22:33:00,
2013-03-24 18:35:00,36.2,23.3,29.84,WSW,237,6.0,7.0,59,0.00,,,0.00,VWS V14.01,2013-03-24 22:35:00,
2013-03-24 18:36:00,36.2,23.3,29.84,SW,229,5.0,12.0,59,0.00,,,0.00,VWS V14.01,2013-03-24 22:36:00,
2013-03-24 18:37:00,36.1,23.2,29.84,WSW,238,5.0,12.0,59,0.00,,,0.00,VWS V14.01,2013-03-24 22:37:00,
2013-03-24 18:38:00,36.1,23.2,29.84,WSW,237,6.0,12.0,59,0.00,,,0.00,VWS V14.01,2013-03-24 22:38:00,
2013-03-24 18:40:00,36.0,23.1,29.84,SW,232,3.0,6.0,59,0.00,,,0.00,VWS V14.01,2013-03-24 22:40:00,
2013-03-24 18:42:00,36.0,23.1,29.84,SW,232,0.0,6.0,59,0.00,,,0.00,VWS V14.01,2013-03-24 22:42:00,
2013-03-24 18:43:00,35.9,23.4,29.84,WNW,291,3.0,6.0,60,0.00,,,0.00,VWS V14.01,2013-03-24 22:43:00,
2013-03-24 18:45:00,35.8,22.9,29.84,SW,221,9.0,10.0,59,0.00,,,0.00,VWS V14.01,2013-03-24 22:45:00,
2013-03-24 18:47:00,35.7,23.2,29.84,SSW,209,4.0,10.0,60,0.00,,,0.00,VWS V14.01,2013-03-24 22:47:00,
2013-03-24 18:48:00,35.7,23.2,29.84,SW,229,0.0,10.0,60,0.00,,,0.00,VWS V14.01,2013-03-24 22:48:00,
2013-03-24 18:49:00,35.7,23.2,29.84,West,276,3.0,10.0,60,0.00,,,0.00,VWS V14.01,2013-03-24 22:49:00,
2013-03-24 18:50:00,35.6,23.1,29.84,SW,223,6.0,6.0,60,0.00,,,0.00,VWS V14.01,2013-03-24 22:50:00,
2013-03-24 18:52:00,35.5,23.0,29.84,WSW,257,3.0,6.0,60,0.00,,,0.00,VWS V14.01,2013-03-24 22:52:00,
2013-03-24 18:53:00,35.5,23.0,29.84,SW,224,1.0,6.0,60,0.00,,,0.00,VWS V14.01,2013-03-24 22:53:00,
2013-03-24 18:54:00,35.4,22.9,29.84,SW,226,0.0,6.0,60,0.00,,,0.00,VWS V14.01,2013-03-24 22:54:00,
2013-03-24 18:55:00,35.4,23.3,29.84,SW,226,0.0,2.0,61,0.00,,,0.00,VWS V14.01,2013-03-24 22:55:00,
2013-03-24 18:58:00,35.2,23.5,29.84,SSW,202,0.0,5.0,62,0.00,,,0.00,VWS V14.01,2013-03-24 22:58:00,
2013-03-24 18:59:00,35.2,23.1,29.84,South,190,2.0,5.0,61,0.00,,,0.00,VWS V14.01,2013-03-24 22:59:00,
2013-03-24 19:00:00,35.2,23.1,29.84,South,190,0.0,5.0,61,0.00,,,0.00,VWS V14.01,2013-03-24 23:00:00,
2013-03-24 19:01:00,35.1,23.0,29.84,SSW,193,2.0,3.0,61,0.00,,,0.00,VWS V14.01,2013-03-24 23:01:00,
2013-03-24 19:03:00,35.0,23.3,29.84,SSW,193,0.0,3.0,62,0.00,,,0.00,VWS V14.01,2013-03-24 23:03:00,
2013-03-24 19:04:00,34.9,23.2,29.85,SW,221,3.0,5.0,62,0.00,,,0.00,VWS V14.01,2013-03-24 23:04:00,
2013-03-24 19:05:00,34.9,23.2,29.85,SW,222,2.0,5.0,62,0.00,,,0.00,VWS V14.01,2013-03-24 23:05:00,
2013-03-24 19:06:00,34.8,23.1,29.85,SW,221,3.0,3.0,62,0.00,,,0.00,VWS V14.01,2013-03-24 23:06:00,
2013-03-24 19:08:00,34.7,23.0,29.85,SW,230,0.0,5.0,62,0.00,,,0.00,VWS V14.01,2013-03-24 23:08:00,
2013-03-24 19:09:00,34.6,22.9,29.85,SW,230,3.0,5.0,62,0.00,,,0.00,VWS V14.01,2013-03-24 23:09:00,
2013-03-24 19:10:00,34.7,23.0,29.85,SW,230,2.0,5.0,62,0.00,,,0.00,VWS V14.01,2013-03-24 23:10:00,
2013-03-24 19:11:00,34.6,22.9,29.85,SW,231,0.0,3.0,62,0.00,,,0.00,VWS V14.01,2013-03-24 23:11:00,
2013-03-24 19:36:00,34.5,23.2,29.85,SW,230,0.0,3.0,63,0.00,,,0.00,VWS V14.01,2013-03-24 23:36:00,
2013-03-24 19:37:00,32.9,22.8,29.84,SW,226,1.0,3.0,66,0.00,,,0.00,VWS V14.01,2013-03-24 23:37:00,
2013-03-24 19:40:00,32.8,23.1,29.84,SW,229,1.0,3.0,67,0.00,,,0.00,VWS V14.01,2013-03-24 23:40:00,
2013-03-24 19:41:00,32.7,23.3,29.84,SW,229,2.0,2.0,68,0.00,,,0.00,VWS V14.01,2013-03-24 23:41:00,
2013-03-24 19:57:00,32.7,23.3,29.84,SW,229,1.0,3.0,68,0.00,,,0.00,VWS V14.01,2013-03-24 23:57:00,
2013-03-24 20:00:00,31.7,23.4,29.84,WSW,249,0.0,3.0,71,0.00,,,0.00,VWS V14.01,2013-03-25 00:00:00,
2013-03-24 20:02:00,31.5,23.2,29.84,WSW,249,0.0,0.0,71,0.00,,,0.00,VWS V14.01,2013-03-25 00:02:00,
2013-03-24 20:05:00,31.3,23.3,29.84,WSW,249,0.0,0.0,72,0.00,,,0.00,VWS V14.01,2013-03-25 00:05:00,
2013-03-24 20:07:00,31.1,23.1,29.84,WSW,249,0.0,0.0,72,0.00,,,0.00,VWS V14.01,2013-03-25 00:07:00,
2013-03-24 20:08:00,31.0,23.4,29.84,WSW,249,0.0,0.0,73,0.00,,,0.00,VWS V14.01,2013-03-25 00:08:00,
2013-03-24 20:10:00,31.0,23.0,29.84,WSW,249,0.0,2.0,72,0.00,,,0.00,VWS V14.01,2013-03-25 00:10:00,
2013-03-24 20:12:00,30.8,23.2,29.84,WSW,249,0.0,0.0,73,0.00,,,0.00,VWS V14.01,2013-03-25 00:12:00,
2013-03-24 20:13:00,30.8,23.2,29.84,WSW,249,0.0,0.0,73,0.00,,,0.00,VWS V14.01,2013-03-25 00:13:00,
2013-03-24 20:15:00,30.7,23.1,29.84,WSW,249,0.0,1.0,73,0.00,,,0.00,VWS V14.01,2013-03-25 00:15:00,
2013-03-24 20:20:00,30.6,23.0,29.85,WSW,248,0.0,4.0,73,0.00,,,0.00,VWS V14.01,2013-03-25 00:20:00,
2013-03-24 20:25:00,30.6,23.3,29.85,WSW,248,0.0,1.0,74,0.00,,,0.00,VWS V14.01,2013-03-25 00:25:00,
2013-03-24 20:30:00,30.3,23.3,29.84,WSW,248,1.0,3.0,75,0.00,,,0.00,VWS V14.01,2013-03-25 00:30:00,
2013-03-24 20:35:00,30.1,22.8,29.85,WSW,248,1.0,4.0,74,0.00,,,0.00,VWS V14.01,2013-03-25 00:35:00,
2013-03-24 20:40:00,30.4,22.8,29.84,SW,225,2.0,7.0,73,0.00,,,0.00,VWS V14.01,2013-03-25 00:40:00,
2013-03-24 20:45:00,30.8,22.9,29.84,WSW,248,0.0,1.0,72,0.00,,,0.00,VWS V14.01,2013-03-25 00:45:00,
2013-03-24 20:50:00,30.8,22.9,29.84,WSW,248,0.0,2.0,72,0.00,,,0.00,VWS V14.01,2013-03-25 00:50:00,
2013-03-24 20:55:00,30.5,22.9,29.84,WSW,248,1.0,2.0,73,0.00,,,0.00,VWS V14.01,2013-03-25 00:55:00,
2013-03-24 21:00:00,30.2,22.9,29.85,WSW,248,0.0,1.0,74,0.00,,,0.00,VWS V14.01,2013-03-25 01:00:00,
2013-03-24 21:05:00,30.0,22.7,29.85,WSW,248,0.0,0.0,74,0.00,,,0.00,VWS V14.01,2013-03-25 01:05:00,
2013-03-24 21:10:00,29.7,22.8,29.85,WSW,248,0.0,0.0,75,0.00,,,0.00,VWS V14.01,2013-03-25 01:10:00,
2013-03-24 21:15:00,29.3,22.7,29.85,WSW,248,0.0,1.0,76,0.00,,,0.00,VWS V14.01,2013-03-25 01:15:00,
2013-03-24 21:20:00,29.0,22.4,29.85,WSW,248,0.0,0.0,76,0.00,,,0.00,VWS V14.01,2013-03-25 01:20:00,
2013-03-24 21:25:00,28.7,22.4,29.85,WSW,248,0.0,2.0,77,0.00,,,0.00,VWS V14.01,2013-03-25 01:25:00,
2013-03-24 21:30:00,28.4,22.1,29.85,WSW,248,0.0,0.0,77,0.00,,,0.00,VWS V14.01,2013-03-25 01:30:00,
2013-03-24 21:35:00,28.3,22.0,29.85,WSW,248,0.0,0.0,77,0.00,,,0.00,VWS V14.01,2013-03-25 01:35:00,
2013-03-24 21:40:00,28.1,21.8,29.85,WSW,248,0.0,0.0,77,0.00,,,0.00,VWS V14.01,2013-03-25 01:40:00,
2013-03-24 21:45:00,28.0,22.0,29.85,WSW,248,0.0,2.0,78,0.00,,,0.00,VWS V14.01,2013-03-25 01:45:00,
2013-03-24 21:50:00,27.9,21.9,29.85,WSW,248,0.0,1.0,78,0.00,,,0.00,VWS V14.01,2013-03-25 01:50:00,
2013-03-24 21:55:00,27.8,21.9,29.85,WSW,248,0.0,0.0,78,0.00,,,0.00,VWS V14.01,2013-03-25 01:55:00,
2013-03-24 22:00:00,27.7,21.8,29.85,WSW,248,0.0,0.0,78,0.00,,,0.00,VWS V14.01,2013-03-25 02:00:00,
2013-03-24 22:07:00,27.7,21.8,29.85,WSW,248,0.0,0.0,78,0.00,,,0.00,VWS V14.01,2013-03-25 02:07:00,
2013-03-24 22:08:00,27.7,21.8,29.85,WSW,248,0.0,0.0,78,0.00,,,0.00,VWS V14.01,2013-03-25 02:08:00,
2013-03-24 22:10:00,27.7,22.0,29.84,WSW,238,0.0,0.0,79,0.00,,,0.00,VWS V14.01,2013-03-25 02:10:00,
2013-03-24 22:12:00,27.7,22.0,29.84,WSW,238,0.0,0.0,79,0.00,,,0.00,VWS V14.01,2013-03-25 02:12:00,
2013-03-24 22:13:00,27.7,22.0,29.84,WSW,237,0.0,0.0,79,0.00,,,0.00,VWS V14.01,2013-03-25 02:13:00,
2013-03-24 22:15:00,27.7,22.0,29.84,WSW,237,0.0,0.0,79,0.00,,,0.00,VWS V14.01,2013-03-25 02:15:00,
2013-03-24 22:17:00,27.6,22.0,29.84,WSW,238,0.0,0.0,79,0.00,,,0.00,VWS V14.01,2013-03-25 02:17:00,
2013-03-24 22:18:00,27.6,22.0,29.84,WSW,238,0.0,0.0,79,0.00,,,0.00,VWS V14.01,2013-03-25 02:18:00,
2013-03-24 22:20:00,27.6,21.6,29.84,WSW,238,0.0,0.0,78,0.00,,,0.00,VWS V14.01,2013-03-25 02:20:00,
2013-03-24 22:23:00,27.4,21.8,29.84,WSW,238,0.0,0.0,79,0.00,,,0.00,VWS V14.01,2013-03-25 02:23:00,
2013-03-24 22:25:00,27.4,21.8,29.84,WSW,238,0.0,0.0,79,0.00,,,0.00,VWS V14.01,2013-03-25 02:25:00,
2013-03-24 22:28:00,27.3,21.7,29.84,WSW,238,0.0,0.0,79,0.00,,,0.00,VWS V14.01,2013-03-25 02:28:00,
2013-03-24 22:30:00,27.2,21.6,29.84,WSW,238,0.0,0.0,79,0.00,,,0.00,VWS V14.01,2013-03-25 02:30:00,
2013-03-24 22:33:00,27.1,21.5,29.84,WSW,237,0.0,0.0,79,0.00,,,0.00,VWS V14.01,2013-03-25 02:33:00,
2013-03-24 22:35:00,27.1,21.5,29.84,WSW,237,0.0,0.0,79,0.00,,,0.00,VWS V14.01,2013-03-25 02:35:00,
2013-03-24 22:38:00,27.0,21.4,29.84,WSW,238,0.0,0.0,79,0.00,,,0.00,VWS V14.01,2013-03-25 02:38:00,
2013-03-24 22:40:00,26.9,21.3,29.84,WSW,238,0.0,0.0,79,0.00,,,0.00,VWS V14.01,2013-03-25 02:40:00,
2013-03-24 22:43:00,26.7,21.4,29.84,WSW,238,0.0,0.0,80,0.00,,,0.00,VWS V14.01,2013-03-25 02:43:00,
2013-03-24 22:44:00,26.7,21.4,29.83,WSW,238,0.0,0.0,80,0.00,,,0.00,VWS V14.01,2013-03-25 02:44:00,
2013-03-24 22:45:00,26.7,21.4,29.83,WSW,238,1.0,1.0,80,0.00,,,0.00,VWS V14.01,2013-03-25 02:45:00,
2013-03-24 22:48:00,26.8,21.5,29.83,WSW,237,0.0,2.0,80,0.00,,,0.00,VWS V14.01,2013-03-25 02:48:00,
2013-03-24 22:49:00,26.9,21.6,29.83,WSW,237,0.0,2.0,80,0.00,,,0.00,VWS V14.01,2013-03-25 02:49:00,
2013-03-24 22:50:00,26.9,21.6,29.83,WSW,238,0.0,2.0,80,0.00,,,0.00,VWS V14.01,2013-03-25 02:50:00,
2013-03-24 22:53:00,26.9,21.6,29.83,WSW,238,0.0,0.0,80,0.00,,,0.00,VWS V14.01,2013-03-25 02:53:00,
2013-03-24 22:54:00,26.9,21.6,29.83,WSW,238,0.0,0.0,80,0.00,,,0.00,VWS V14.01,2013-03-25 02:54:00,
2013-03-24 22:55:00,26.9,21.6,29.83,WSW,237,0.0,0.0,80,0.00,,,0.00,VWS V14.01,2013-03-25 02:55:00,
2013-03-24 22:59:00,26.9,21.6,29.84,WSW,238,0.0,0.0,80,0.00,,,0.00,VWS V14.01,2013-03-25 02:59:00,
2013-03-24 23:00:00,27.0,21.7,29.84,WSW,238,0.0,0.0,80,0.00,,,0.00,VWS V14.01,2013-03-25 03:00:00,
2013-03-24 23:04:00,27.0,21.7,29.83,WSW,238,0.0,1.0,80,0.00,,,0.00,VWS V14.01,2013-03-25 03:04:00,
2013-03-24 23:05:00,27.0,21.7,29.83,WSW,237,0.0,1.0,80,0.00,,,0.00,VWS V14.01,2013-03-25 03:05:00,
2013-03-24 23:09:00,27.0,21.7,29.83,WSW,238,0.0,0.0,80,0.00,,,0.00,VWS V14.01,2013-03-25 03:09:00,
2013-03-24 23:10:00,27.0,21.7,29.83,WSW,237,0.0,0.0,80,0.00,,,0.00,VWS V14.01,2013-03-25 03:10:00,
2013-03-24 23:14:00,26.9,21.6,29.83,WSW,238,0.0,0.0,80,0.00,,,0.00,VWS V14.01,2013-03-25 03:14:00,
2013-03-24 23:15:00,26.9,21.6,29.83,WSW,238,0.0,0.0,80,0.00,,,0.00,VWS V14.01,2013-03-25 03:15:00,
2013-03-24 23:19:00,26.9,21.6,29.83,WSW,237,0.0,0.0,80,0.00,,,0.00,VWS V14.01,2013-03-25 03:19:00,
2013-03-24 23:20:00,26.9,21.6,29.83,WSW,238,0.0,1.0,80,0.00,,,0.00,VWS V14.01,2013-03-25 03:20:00,
2013-03-24 23:24:00,26.9,21.6,29.83,WSW,238,0.0,1.0,80,0.00,,,0.00,VWS V14.01,2013-03-25 03:24:00,
2013-03-24 23:25:00,26.9,21.6,29.83,WSW,238,0.0,1.0,80,0.00,,,0.00,VWS V14.01,2013-03-25 03:25:00,
2013-03-24 23:29:00,26.8,21.5,29.83,WSW,237,0.0,2.0,80,0.00,,,0.00,VWS V14.01,2013-03-25 03:29:00,
2013-03-24 23:30:00,26.7,21.4,29.83,WSW,237,0.0,2.0,80,0.00,,,0.00,VWS V14.01,2013-03-25 03:30:00,
2013-03-24 23:34:00,26.7,21.7,29.83,WSW,237,0.0,0.0,81,0.00,,,0.00,VWS V14.01,2013-03-25 03:34:00,
2013-03-24 23:35:00,26.7,21.7,29.83,WSW,238,0.0,0.0,81,0.00,,,0.00,VWS V14.01,2013-03-25 03:35:00,
2013-03-24 23:39:00,26.8,21.8,29.83,WSW,237,0.0,0.0,81,0.00,,,0.00,VWS V14.01,2013-03-25 03:39:00,
2013-03-24 23:40:00,26.8,21.8,29.84,WSW,238,0.0,0.0,81,0.00,,,0.00,VWS V14.01,2013-03-25 03:40:00,
2013-03-24 23:44:00,26.7,21.4,29.83,WSW,238,0.0,0.0,80,0.00,,,0.00,VWS V14.01,2013-03-25 03:44:00,
2013-03-24 23:45:00,26.6,21.3,29.83,WSW,238,0.0,0.0,80,0.00,,,0.00,VWS V14.01,2013-03-25 03:45:00,
2013-03-24 23:49:00,26.5,21.5,29.84,WSW,238,0.0,0.0,81,0.00,,,0.00,VWS V14.01,2013-03-25 03:49:00,
2013-03-24 23:50:00,26.5,21.5,29.84,WSW,237,0.0,0.0,81,0.00,,,0.00,VWS V14.01,2013-03-25 03:50:00,
2013-03-24 23:54:00,26.3,21.3,29.83,WSW,238,0.0,0.0,81,0.00,,,0.00,VWS V14.01,2013-03-25 03:54:00,
2013-03-24 23:55:00,26.3,21.3,29.83,WSW,238,0.0,0.0,81,0.00,,,0.00,VWS V14.01,2013-03-25 03:55:00,
2013-03-24 23:59:00,26.1,21.1,29.83,WSW,237,0.0,0.0,81,0.00,,,0.00,VWS V14.01,2013-03-25 03:59:00,